     2              OBSERVATION DATA    GPS                 RINEX VERSION / TYPE
ASRINEXO V2.7.2 UX SOPAC 02-MAR- 0 15:32                    PGM / RUN BY / DATE
                                                            COMMENT
Original Marker Name: 0101                                  COMMENT
Campaign Name: HPGN 1991                                    COMMENT
4-Character Station Name: 0101                              COMMENT
6-Character Antenna Code: ASHL12                            COMMENT
Vertical Measurement Point: BAS                             COMMENT
Vertical Offset to Rinex Ref. Point: 0.0000                 COMMENT
Radial Measurement Point: RRP                               COMMENT
Radial Offset to Rinex Ref. Point: 0.0000                   COMMENT
Antenna Height from Field Measurement: 1.5440 m             COMMENT
Additional Antenna Identification Info.:                    COMMENT
Original Ashtech L1/L2                                      COMMENT
Original XYZ: -2662522.4600 -4187050.7800 3995154.5100      COMMENT
New XYZ position is based on association with SCEC monument COMMENT
E1O4F3S2+0011. Position of that monument is believed to be  COMMENT
valid to within 1 m horizontally; vertical accuracy         COMMENT
should be no worse than 3-times this value.                 COMMENT
                                                            COMMENT
Revised Rinex header created by UCSD GPS archive for        COMMENT
GSAC on 17-Mar-2000 (2000:077) 23:03:53 GMT                 COMMENT
For assistance contact dagnew@ucsd.edu or hjohnson@ucsd.edu COMMENT
                                                            COMMENT
HPGN CA 01 01                                               MARKER NAME
SFH CALIF DEPT TRANSPORTATION                               OBSERVER / AGENCY
571 ASHTECH L-XII 6A                                        REC # / TYPE / VERS
611 ASHTECH GEODETIC L                                      ANT # / TYPE
 -2662518.7678 -4187022.7544  3995138.6521                  APPROX POSITION XYZ
        1.5440        0.0000        0.0000                  ANTENNA: DELTA H/E/N
     1     2     0                                          WAVELENGTH FACT L1/2
     3    C1    L1    L2                                    # / TYPES OF OBSERV
     0                                                      INTERVAL
  1991     7     9     5    39   15.000000                  TIME OF FIRST OBS
  1991     7     9     7    44    0.000000                  TIME OF LAST OBS
                                                            END OF HEADER
 91  7  9  5 39 15.0000000  0  4 11 23 17 21
  30573697.965           0.484 3         0.497 2
  21129954.333           0.656 4         0.037 3
  31160325.556           0.710 2         0.036 1
  28906080.838           0.192 4         0.496 2
 91  7  9  5 39 30.0000000  0  4 11 23 17 21
  30565347.251      -43881.986 3    -34193.625 2
  29228664.114       22666.871 4     17662.034 2
  31168113.562       40927.116 2     31890.729 1
  28902500.716      -18822.545 4    -14666.523 2
 91  7  9  5 39 45.0000000  0  4 11 23 17 21
  22462594.472        -248.535 3      -193.475 2
  21138596.458        4607.637 4      3590.139 2
  23081527.695         380.856 2       296.110 1
  20804523.329         -82.210 4       -63.799 3
 91  7  9  5 40  0.0000000  0  4 11 23 17 21
  22454274.331      -43975.233 3    -34266.198 2
  21142920.962       27336.992 4     21301.325 2
  23089326.188       41370.383 2     32235.983 1
  20800960.597      -18797.645 4    -14647.248 2
 91  7  9  5 40 15.0000000  0  4 11 23 17 21
  22445967.381      -87613.529 3    -68270.051 1
  21147253.860       50107.670 4     39044.702 2
  23097126.191       82401.213 2     64208.029 1
  20797414.346      -37449.456 4    -29181.118 3
 91  7  9  5 40 30.0000000  0  4 11 23 17 21
  22437682.315     -131160.408 3   -102202.662 1
  21151594.558       72921.912 4     56822.036 2
  23104945.381      123475.888 2     96214.255 1
  20793876.498      -56034.978 4    -43663.324 2
 91  7  9  5 40 45.0000000  0  5 11 12 23 17 21
  22429415.536     -174610.671 3   -136059.979 2
  24530323.010           0.417 2         0.036 1
  21155941.547       95784.635 4     74637.147 2
  23112773.863      164599.152 2    128258.336 1
  20790352.435      -74549.531 4    -58090.257 3
 91  7  9  5 41  0.0000000  0  5 11 12 23 17 21
  22421162.255     -217962.706 3   -169840.787 1
  24523687.102      -34848.121 2    -27154.503 1
  21160305.026      118696.756 4     92490.738 2
  23120607.440      205772.270 2    160341.368 1
  20786842.472      -92991.821 4    -72460.874 2
 91  7  9  5 41 15.0000000  0  5 11 12 23 17 21
  22412935.044     -261217.371 3   -203545.679 1
  24517074.883      -69607.565 2    -54239.969 1
  21164674.499      141657.223 4    110382.010 2
  23128448.512      246993.871 2    192462.035 1
  20783347.787     -111363.133 4    -86776.160 2
 91  7  9  5 41 30.0000000  0  5 11 12 23 17 21
  22404723.731     -304371.012 3   -237171.867 1
  24510479.748     -104274.188 2    -81252.738 1
  21169053.867      164668.870 4    128313.157 2
  23136301.573      288267.196 2    224623.062 1
  20779863.598     -129660.169 4   -101033.551 2
 91  7  9  5 41 45.0000000  0  5 11 12 23 17 21
  22396531.901     -347423.219 3   -270719.019 2
  24503896.007     -138847.759 2   -108193.324 1
  21173442.527      187731.450 4    146283.991 2
  23144169.623      329591.889 2    256824.062 1
  20776396.798     -147883.084 4   -115233.237 2
 91  7  9  5 42  0.0000000  0  5 11 12 23 17 21
  22388360.758     -390374.663 3   -304187.642 1
  24497339.847     -173328.854 2   -135061.558 1
  21177839.886      210843.865 4    164293.673 2
  23152040.980      370966.758 2    289064.231 1
  20772943.487     -166032.835 4   -129375.862 2
 91  7  9  5 42 15.0000000  0  5 11 12 23 17 21
  22380205.808     -433223.076 3   -337576.033 2
  24490789.681     -207715.243 2   -161856.244 1
  21182246.240      234007.847 4    182343.545 2
  23159924.918      412393.589 2    321344.836 1
  20769501.877     -184107.759 4   -143460.219 2
 91  7  9  5 42 30.0000000  0  5 11 12 23 17 21
  22372067.638     -475967.101 3   -370883.051 1
  24484264.992     -242005.588 2   -188575.953 1
  21186668.178      257224.296 4    200434.292 2
  23167822.355      453873.395 2    353666.811 1
  20766079.444     -202106.673 4   -157485.342 2
 91  7  9  5 42 45.0000000  0  5 11 12 23 17 21
  22363956.454     -518606.983 3   -404108.902 1
  24477764.001     -276200.109 2   -215220.959 1
  21191094.914      280492.184 4    218565.112 2
  23175721.579      495405.499 2    386029.447 1
  20762669.907     -220030.243 4   -171451.757 2
 91  7  9  5 43  0.0000000  0  5 11 12 23 17 21
  22355864.753     -561141.381 3   -437252.560 2
  24471267.197     -310297.283 2   -241789.988 1
  21195530.044      303812.562 4    236736.851 2
  23183631.606      536990.732 2    418433.587 1
  20759272.655     -237877.616 4   -185358.770 3
 91  7  9  5 43 15.0000000  0  5 11 12 23 17 21
  22347794.044     -603570.692 3   -470314.368 1
  24464804.570     -344297.573 2   -268283.810 1
  21199979.256      327184.415 4    254948.683 2
  23191561.413      578628.037 2    450878.182 1
  20755889.197     -255649.659 4   -199207.104 2
 91  7  9  5 43 30.0000000  0  5 11 12 23 17 21
  22339732.628     -645892.736 3   -503292.548 2
  24458348.540     -378198.574 2   -294700.111 1
  21204436.574      350609.312 4    273201.852 2
  23199495.128      620319.435 2    483364.928 1
  20752522.230     -273344.579 4   -212995.314 3
 91  7  9  5 43 45.0000000  0  5 11 12 23 17 21
  22331702.082     -688108.400 3   -536187.837 2
  24451915.892     -412001.433 2   -321040.093 1
  21208905.584      374086.041 4    291495.411 2
  23207434.523      662063.571 2    515892.847 1
  20749169.651     -290963.753 4   -226724.545 2
 91  7  9  5 44  0.0000000  0  5 11 12 23 17 21
  22323690.434     -730216.782 3   -568999.560 2
  24445496.131     -445705.109 2   -347302.517 1
  21213382.079      397614.908 4    309829.584 2
  23215396.115      703860.716 2    548462.024 1
  20745833.562     -308506.536 4   -240394.256 2
 91  7  9  5 44 15.0000000  0  5 11 12 23 17 21
  22315697.065     -772217.590 3   -601727.426 1
  24439114.150     -479309.233 2   -373487.583 1
  21217870.877      421195.697 4    328204.226 2
  23223350.806      745710.761 2    581072.398 1
  20742507.664     -325972.916 4   -254004.431 2
 91  7  9  5 44 30.0000000  0  5 11 12 23 17 21
  22307727.385     -814110.972 3   -634371.614 1
  24432737.867     -512813.966 2   -399595.160 1
  21222365.661      444827.643 4    346618.736 2
  23231336.383      787612.986 2    613723.495 1
  20739200.350     -343363.402 4   -267555.414 2
 91  7  9  5 44 45.0000000  0  5 11 12 23 17 21
  22299770.286     -855895.283 3   -666930.780 1
  24426383.170     -546217.778 2   -425623.990 1
  21226873.645      468511.848 4    365073.981 2
  23239313.262      829568.526 2    646416.142 1
  20735904.135     -360677.017 4   -281046.521 2
 91  7  9  5 45  0.0000000  0  5 11 12 23 17 21
  22291834.485     -897570.395 3   -699404.875 1
  24420044.352     -579520.519 2   -451574.304 1
  21231391.812      492248.105 4    383569.775 2
  23247307.224      871576.857 2    679149.904 1
  20732625.003     -377914.104 4   -294478.005 2
 91  7  9  5 45 15.0000000  0  5 11 12 23 17 21
  22283934.353     -939135.225 3   -731793.037 1
  24413727.129     -612721.030 2   -477444.733 1
  21235915.982      516036.845 4    402106.440 2
  23255306.884      913638.774 2    711925.391 1
  20729358.767     -395074.011 4   -307849.367 2
 91  7  9  5 45 30.0000000  0  5 11 12 23 17 21
  22276045.319     -980589.015 3   -764094.667 2
  24407424.293     -645818.547 2   -503234.893 1
  21240453.038      539878.282 4    420684.198 2
  23263325.738      955754.359 2    744742.737 1
  20726109.912     -412156.355 4   -321160.292 2
 91  7  9  5 45 45.0000000  0  5 11 12 23 17 21
  22268176.964    -1021920.087 3   -796300.662 1
  24401149.937     -678801.335 2   -528935.907 1
  21245003.287      563783.377 4    439311.550 2
  23271350.875      997935.051 2    777610.794 1
  20722874.554     -429149.841 4   -334401.992 2
 91  7  9  5 46  0.0000000  0  5 11 12 23 17 21
  22260338.884    -1063132.734 3   -828414.403 1
  24394889.366     -711673.732 2   -554550.660 1
  21249563.134      587747.326 4    457984.772 2
  23279391.910     1040175.933 2    810525.748 1
  20719655.984     -446059.019 4   -347577.951 2
 91  7  9  5 46 15.0000000  0  5 11 12 23 17 21
  22252514.905    -1104234.436 3   -860441.698 1
  24388661.182     -744443.223 2   -580085.564 1
  21254132.866      611762.208 4    476697.670 2
  23287433.249     1082469.109 2    843481.428 1
  20716452.700     -462891.946 4   -360694.513 2
 91  7  9  5 46 30.0000000  0  5 11 12 23 17 21
  22244713.104    -1145224.297 3   -892381.824 2
  24382432.091     -777108.839 2   -605539.043 1
  21258712.798      635828.679 4    495450.778 2
  23295496.166     1124815.366 2    876478.564 1
  20713262.905     -479648.188 4   -373751.369 2
 91  7  9  5 46 45.0000000  0  5 11 12 23 17 21
  22236934.687    -1186102.415 3   -924234.875 2
  24376243.180     -809670.516 2   -630911.701 1
  21263299.622      659946.097 4    514243.570 2
  23303566.281     1167213.740 2    909516.228 1
  20710091.101     -496327.895 4   -386748.503 2
 91  7  9  5 47  0.0000000  0  5 11 12 23 17 21
  22229176.957    -1226867.451 3   -955999.811 2
  24370071.954     -842127.056 2   -656202.571 1
  21267900.538      684115.201 4    533076.629 2
  23311643.882     1209665.223 2    942595.309 1
  20706932.489     -512930.342 4   -399685.477 2
 91  7  9  5 47 15.0000000  0  5 11 12 23 17 21
  22221437.515    -1267519.320 3   -987676.554 2
  24363905.815     -874478.433 2   -681411.329 1
  21272509.847      708335.373 4    551949.497 2
  23319726.291     1252169.065 2    975715.166 1
  20703788.562     -529455.892 4   -412562.502 2
 91  7  9  5 47 30.0000000  0  5 11 12 23 17 21
  22213727.756    -1308057.440 3  -1019264.673 1
  24357775.963     -906724.127 2   -706538.081 1
  21277129.653      732606.609 4    570862.151 2
  23327827.877     1294725.406 2   1008875.891 1
  20700655.437     -545904.464 4   -425379.535 2
 91  7  9  5 47 45.0000000  0  5 11 12 23 17 21
  22206038.082    -1348482.439 3  -1050764.671 1
  24351662.594     -938864.711 2   -731582.921 1
  21281756.343      756927.744 4    589813.694 2
  23335939.070     1337333.285 2   1042076.817 1
  20697539.988     -562277.090 4   -438137.422 2
 91  7  9  5 48  0.0000000  0  5 11 12 23 17 21
  22198360.998    -1388792.451 3  -1082175.035 1
  24345559.424     -970898.246 2   -756544.000 1
  21286394.733      781300.147 4    608805.189 2
  23344054.451     1379994.267 2   1075319.069 1
  20694441.039     -578572.110 4   -450834.819 3
 91  7  9  5 48 15.0000000  0  5 11 12 23 17 21
  22190717.183    -1428986.853 3  -1113495.331 2
  24339486.224    -1002823.978 2   -781421.380 1
  21291042.118      805724.191 4    627836.928 2
  23352188.119     1422708.504 2   1108602.949 1
  20691353.170     -594789.522 4   -463471.779 2
 91  7  9  5 48 30.0000000  0  5 11 12 23 17 21
  22183088.367    -1469066.004 3  -1144725.804 1
  24333437.909    -1034642.321 2   -806214.690 1
  21295699.695      830198.877 4    646908.113 2
  23360322.381     1465474.955 2   1141927.452
  20688282.403     -610929.907 4   -476048.681 2
 91  7  9  5 48 45.0000000  0  5 11 12 23 17 21
  22175484.435    -1509029.175 3  -1175865.919 1
  24327399.191    -1066352.634 2   -830924.224 1
  21300366.267      854724.275 4    666018.826 2
  23368475.245     1508293.801 2   1175292.728 1
  20685224.218     -626992.824 4   -488565.183 2
 91  7  9  5 49  0.0000000  0  5 11 12 23 17 21
  22167897.586    -1548876.381 3  -1206915.653 2
  24321386.553    -1097954.851 2   -855549.148 1
  21305042.725      879299.990 4    685168.724 2
  23376623.598     1551164.701 2   1208698.616 1
  20682184.023     -642978.853 4   -501021.810 2
 91  7  9  5 49 15.0000000  0  5 11 12 23 17 21
  22160341.912    -1588607.860 3  -1237875.250 1
  24315393.407    -1129449.335 2   -880090.097 1
  21309727.279      903925.165 4    704357.183 2
  23384798.039     1594086.884 2   1242144.513 1
  20679155.521     -658888.814 4   -513419.180 2
 91  7  9  5 49 30.0000000  0  5 11 12 23 17 21
  22152797.939    -1628223.283 3  -1268744.350 2
  24309417.937    -1160835.560 2   -904547.086 1
  21314423.534      928599.641 4    723584.054 2
  23392971.581     1637060.113 2   1275630.119 1
  20676143.805     -674722.519 4   -525757.150 2
 91  7  9  5 49 45.0000000  0  5 11 12 23 17 21
  22145282.741    -1667721.239 3  -1299521.978 1
  24303470.659    -1192112.161 2   -928918.505 1
  21319129.971      953324.338 4    742850.037 2
  23401164.310     1680085.405 2   1309156.313 1
  20673143.179     -690478.944 4   -538034.847 2
 91  7  9  5 50  0.0000000  0  5 11 12 23 17 21
  22137792.427    -1707100.914 3  -1330207.411 2
  24297540.464    -1223278.357 2   -953203.768 1
  21323843.912      978099.588 4    762155.435 2
  23409360.939     1723162.942 2   1342723.205 1
  20670160.247     -706157.894 4   -550252.190 2
 91  7  9  5 50 15.0000000  0  5 11 12 23 17 21
  22130321.299    -1746362.773 3  -1360801.045 2
  24291626.454    -1254334.746 2   -977403.570 1
  21328567.136     1002924.154 4    781499.255 2
  23417563.859     1766291.949 2   1376330.184 1
  20667191.704     -721760.521 4   -562410.084 2
 91  7  9  5 50 30.0000000  0  5 11 12 23 17 21
  22122873.250    -1785507.852 3  -1391303.674 2
  24285743.628    -1285282.170 2  -1001518.654 1
  21333300.560     1027796.632 4    800880.399 2
  23425779.971     1809470.884 2   1409976.105 1
  20664238.150     -737287.916 4   -574509.359 2
 91  7  9  5 50 45.0000000  0  5 11 12 23 17 21
  22115449.194    -1824533.891 3  -1421713.566 2
  24279872.494    -1316118.424 2  -1025546.747 1
  21338044.480     1052718.789 4    820300.268 2
  23434006.877     1852701.410 2   1443662.231 1
  20661297.186     -752738.299 4   -586548.630 2
 91  7  9  5 51  0.0000000  0  5 11 12 23 17 21
  22108034.727    -1863440.117 3  -1452030.069 2
  24274023.547    -1346842.676 2  -1049487.637 1
  21342796.192     1077690.921 4    839759.073 2
  23442246.974     1895983.928 2   1477388.826 1
  20658372.407     -768111.232 4   -598527.526 2
 91  7  9  5 51 15.0000000  0  5 11 12 23 17 21
  22100661.330    -1902226.868 3  -1482253.484 2
  24268200.375    -1377455.307 2  -1073341.648 1
  21347557.789     1102712.012 4    859256.024 2
  23450486.766     1939317.554 2   1511155.310 1
  20655461.423     -783407.539 4   -610446.724 2
 91  7  9  5 51 30.0000000  0  5 11 12 23 17 21
  22093302.625    -1940893.665 3  -1512383.422 2
  24262393.396    -1407955.833 2  -1097108.181 1
  21352328.391     1127782.273 4    878791.284 2
  23458748.450     1982702.287 2   1544961.587 1
  20652565.428     -798627.168 4   -622306.162 2
 91  7  9  5 51 45.0000000  0  5 11 12 23 17 21
  22085966.702    -1979440.447 3  -1542419.902 1
  24256612.793    -1438344.188 2  -1120787.549 1
  21357106.784     1152901.233 4    898364.505 2
  23467013.728     2026137.870 2   1578807.505 1
  20649681.422     -813770.275 4   -634105.988 2
 91  7  9  5 52  0.0000000  0  5 11 12 23 17 21
  22078657.460    -2017866.221 3  -1572362.014 2
  24250855.583    -1468619.402 2  -1144378.565 1
  21361896.869     1178069.349 4    917976.024 2
  23475282.897     2069624.482 2   1612693.106 1
  20646816.009     -828836.281 4   -645845.741 2
 91  7  9  5 52 15.0000000  0  5 11 12 23 17 21
  22071367.710    -2056170.454 3  -1602209.437 2
  24245110.962    -1498781.016 2  -1167881.157 1
  21366697.145     1203286.497 4    937625.749 2
  23483573.958     2113162.236 2   1646618.644 1
  20643964.085     -843825.284 4   -657525.473 2
 91  7  9  5 52 30.0000000  0  5 11 12 23 17 21
  22064099.241    -2094352.650 3  -1631961.781 1
  24239395.117    -1528828.396 2  -1191294.701 1
  21371503.720     1228552.674 4    957313.666 2
  23491868.317     2156751.397 2   1680584.209 1
  20641125.345     -858737.235 4   -669145.167 2
 91  7  9  5 52 45.0000000  0  5 11 12 23 17 21
  22056854.460    -2132412.787 3  -1661619.004 2
  24233694.262    -1558761.537 2  -1214619.429 1
  21376320.477     1253867.333 4    977039.376 2
  23500173.469     2200391.190 2   1714589.220 1
  20638304.002     -873572.497 4   -680705.111 2
 91  7  9  5 53  0.0000000  0  5 11 12 23 17 21
  22049635.453    -2170351.261 3  -1691181.441 1
  24228016.790    -1588580.957 2  -1237855.528 1
  21381149.537     1279229.732 4    996802.280 2
  23508490.609     2244081.098 2   1748633.331 1
  20635494.343     -888331.731 4   -692205.810 2
 91  7  9  5 53 15.0000000  0  5 11 12 23 17 21
  22042441.933    -2208166.779 4  -1720648.055 2
  24222371.400    -1618285.174 2  -1261001.625 1
  21385983.989     1304640.632 4   1016602.986 2
  23516808.954     2287821.906 2   1782717.009 1
  20632700.580     -903013.762 4   -703646.332 2
 91  7  9  5 53 30.0000000  0  5 11 12 23 17 21
  22035269.099    -2245858.656 4  -1750018.302 2
  24216735.599    -1647873.479 2  -1284057.421 1
  21390828.039     1330100.370 4   1036441.721 2
  23525142.584     2331613.757 2   1816840.503 1
  20629920.307     -917618.470 4   -715026.570 3
 91  7  9  5 53 45.0000000  0  5 11 12 23 17 21
  22028121.150    -2283427.569 4  -1779292.774 2
  24211124.988    -1677346.600 2  -1307023.594 1
  21395679.583     1355607.605 4   1056317.505 2
  23533482.506     2375455.343 2   1851002.755 1
  20627157.414     -932147.169 4   -726347.612 2
 91  7  9  5 54  0.0000000  0  5 11 12 23 17 21
  22020994.481    -2320873.308 4  -1808471.260 2
  24205547.349    -1706704.297 2  -1329899.599 1
  21400541.912     1381162.079 4   1076230.090 2
  23541835.026     2419346.492 2   1885203.595 1
  20624405.619     -946599.819 4   -737609.420 2
 91  7  9  5 54 15.0000000  0  5 11 12 23 17 21
  22013892.696    -2358193.892 3  -1837552.194 1
  24199983.504    -1735944.657 2  -1352684.493 1
  21405417.136     1406765.202 4   1096180.570 2
  23550203.435     2463288.494 2   1919444.190 1
  20621670.917     -960974.927 4   -748810.837 2
 91  7  9  5 54 30.0000000  0  5 11 12 23 17 21
  22006813.404    -2395390.201 3  -1866536.332 2
  24194439.439    -1765068.637 2  -1375378.345 1
  21410296.863     1432415.486 4   1116167.801 2
  23558570.937     2507280.169 2   1953723.377 1
  20618949.695     -975273.711 4   -759952.734 3
 91  7  9  5 54 45.0000000  0  5 11 12 23 17 21
  21999756.283    -2432462.363 3  -1895423.690 2
  24188925.056    -1794076.082 2  -1397981.427 1
  21415188.272     1458112.533 4   1136191.463 2
  23566949.537     2551321.174 2   1988041.086 1
  20616241.971     -989496.756 4   -771035.613 2
 91  7  9  5 55  0.0000000  0  5 11 12 23 17 21
  21992727.650    -2469409.585 3  -1924213.693 1
  24183418.771    -1822966.248 2  -1420493.374 1
  21420086.880     1483856.679 4   1156251.849 2
  23575343.126     2595411.384 2   2022397.106 1
  20613551.636    -1003643.808 4   -782059.289 3
 91  7  9  5 55 15.0000000  0  5 11 12 23 17 21
  21985719.407    -2506232.104 3  -1952906.542 1
  24177950.257    -1851739.644 2  -1442914.060 1
  21424993.890     1509647.014 4   1176348.204 2
  23583742.117     2639550.164 2   2056790.850 1
  20610872.094    -1017715.363 4   -793024.125 2
 91  7  9  5 55 30.0000000  0  5 11 12 23 17 21
  21978735.140    -2542929.493 3  -1981501.913 2
  24172490.729    -1880395.738 2  -1465243.526 1
  21429909.878     1535483.563 4   1196480.575 2
  23592151.290     2683737.613 2   2091222.669 1
  20608211.730    -1031711.337 4   -803930.069 2
 91  7  9  5 55 45.0000000  0  5 11 12 23 17 21
  21971778.157    -2579500.507 3  -2009998.785 2
  24167059.995    -1908933.414 2  -1487480.572 1
  21434834.574     1561366.931 4   1216649.426 2
  23600567.067     2727974.370 2   2125692.836 1
  20605562.770    -1045630.991 4   -814776.544 3
 91  7  9  5 56  0.0000000  0  5 11 12 23 17 21
  21964839.157    -2615945.302 3  -2038397.304 2
  24161654.432    -1937352.664 2  -1509625.475 1
  21439771.258     1587296.520 4   1236854.301 2
  23608998.131     2772259.791 2   2160200.870 1
  20602926.094    -1059474.801 4   -825563.895 2
 91  7  9  5 56 15.0000000  0  5 11 12 23 17 21
  21957932.840    -2652262.824 3  -2066696.667 2
  24156262.367    -1965652.438 2  -1531677.338 1
  21444713.037     1613272.910 4   1257095.637 2
  23617431.891     2816594.646 2   2194747.551 1
  20600307.104    -1073242.107 4   -836291.624 2
 91  7  9  5 56 30.0000000  0  5 11 12 23 17 21
  21951046.304    -2688452.745 3  -2094896.571 2
  24150905.674    -1993832.528 2  -1553635.682 1
  21449666.203     1639295.989 4   1277373.352 2
  23625876.148     2860978.468 2   2229332.320 1
  20597701.604    -1086933.123 4   -846959.931 2
 91  7  9  5 56 45.0000000  0  5 11 12 23 17 21
  21944180.463    -2724515.840 3  -2122997.669 2
  24145568.472    -2021893.595 2  -1575501.353 1
  21454625.668     1665364.442 4   1297686.444 2
  23634328.797     2905410.022 2   2263954.362 1
  20595111.101    -1100548.979 4   -857569.664 2
 91  7  9  5 57  0.0000000  0  5 11 12 23 17 21
  21937344.594    -2760451.343 4  -2150999.317 1
  24140249.253    -2049834.725 2  -1597273.833 1
  21459595.333     1691478.640 4   1318035.165 2
  23642795.835     2949890.112 2   2298614.144 1
  20592533.189    -1114089.104 4   -868120.411 2
 91  7  9  5 57 15.0000000  0  5 11 12 23 17 21
  21930532.413    -2796259.211 4  -2178901.531 2
  24134957.021    -2077656.002 2  -1618952.688 1
  21464574.884     1717638.161 4   1338419.216 2
  23651272.767     2994417.892 2   2333311.113 1
  20589972.361    -1127553.862 4   -878612.413 2
 91  7  9  5 57 30.0000000  0  5 11 12 23 17 21
  21923742.105    -2831937.821 3  -2206703.032 2
  24129683.670    -2105356.018 2  -1640537.319 1
  21469561.336     1743843.942 4   1358839.320 2
  23659749.393     3038994.535 2   2368046.169 1
  20587422.326    -1140942.153 4   -889044.787 2
 91  7  9  5 57 45.0000000  0  5 11 12 23 17 21
  21916975.792    -2867487.667 3  -2234404.187 2
  24124429.802    -2132935.175 2  -1662027.772 1
  21474555.876     1770094.803 4   1379294.544 2
  23668244.919     3083619.216 2   2402818.608 1
  20584891.774    -1154255.141 4   -899418.576 2
 91  7  9  5 58  0.0000000  0  5 11 12 23 17 21
  21910239.458    -2902908.819 4  -2262005.039 1
  24119204.718    -2160393.370 2  -1683423.625 1
  21479559.708     1796390.423 4   1399784.635 2
  23676744.928     3128291.340 2   2437628.272 1
  20582371.125    -1167492.844 4   -909733.683 2
 91  7  9  5 58 15.0000000  0  5 11 12 23 17 21
  21903520.810    -2938199.708 3  -2289504.406 2
  24114005.120    -2187729.237 2  -1704724.442 1
  21484573.139     1822731.827 4   1420310.414 2
  23685253.942     3173011.836 2   2472475.656 1
  20579867.254    -1180654.233 4   -919989.258 2
 91  7  9  5 58 30.0000000  0  5 11 12 23 17 21
  21896830.336    -2973359.875 3  -2316901.920 2
  24108836.401    -2214942.200 2  -1725929.199 1
  21489595.259     1849119.124 4   1440871.947 2
  23693777.039     3217780.914 2   2507360.668 1
  20577376.576    -1193739.204 4   -930185.301 2
 91  7  9  5 58 45.0000000  0  5 11 12 23 17 21
  21890165.356    -3008388.644 3  -2344197.045 2
  24103673.073    -2242031.648 2  -1747038.035 1
  21494623.085     1875552.603 4   1461469.468 2
  23702304.637     3262598.853 2   2542283.723 1
  20574899.692    -1206747.477 4   -940321.601 2
 91  7  9  5 59  0.0000000  0  5 11 12 23 17 21
  21883522.250    -3043286.095 4  -2371389.831 2
  24098543.922    -2268997.586 2  -1768050.299 1
  21499660.797     1902031.498 4   1482102.381 2
  23710840.028     3307464.906 2   2577244.266 1
  20572438.993    -1219679.546 4   -950398.521 3
 91  7  9  5 59 15.0000000  0  5 11 12 23 17 21
  21876907.928    -3078051.843 3  -2398479.993 1
  24093436.357    -2295839.701 2  -1788966.327 1
  21504707.200     1928555.898 4   1502770.753 2
  23719391.009     3352378.831 2   2612242.162 1
  20569995.090    -1232535.251 4   -960415.938 2
 91  7  9  5 59 30.0000000  0  5 11 12 23 17 21
  21870322.687    -3112686.075 3  -2425467.692 1
  24088356.380    -2322558.183 2  -1809785.890 1
  21509763.802     1955125.009 4   1523473.968 2
  23727945.289     3397340.213 2   2647276.931 1
  20567561.971    -1245315.364 4   -970374.458 3
 91  7  9  5 59 45.0000000  0  5 11 12 23 17 21
  21863753.038    -3147187.692 3  -2452352.040 1
  24083285.984    -2349151.731 2  -1830508.005 1
  21514830.595     1981739.356 4   1544212.427 2
  23736507.954     3442349.558 2   2682349.185 1
  20565144.444    -1258018.971 4   -980273.363 3
 91  7  9  6  0  0.0000000  0  5 11 12 23 17 21
  21857210.672    -3181556.434 3  -2479132.846 2
  24078252.774    -2375620.246 2  -1851132.949 1
  21519903.984     2008398.808 4   1564986.024 2
  23745086.821     3487406.725 2   2717458.685 1
  20562741.009    -1270646.378 4   -990112.874 2
 91  7  9  6  0 15.0000000  0  5 11 12 23 17 21
  21850698.574    -3215792.406 3  -2505810.217 2
  24073248.034    -2401963.865 2  -1871660.381 1
  21524985.164     2035102.869 4   1585794.391 1
  23753665.977     3532511.119 2   2752604.896 1
  20560353.461    -1283198.068 4   -999893.417 2
 91  7  9  6  0 30.0000000  0  5 11 12 23 17 21
  21844208.367    -3249893.717 3  -2532382.635 2
  24068252.892    -2428180.824 2  -1892089.065 1
  21530075.340     2061852.783 4   1606638.464 2
  23762252.636     3577664.140 2   2787789.068 1
  20557977.910    -1295672.535 4  -1009613.790 3
 91  7  9  6  0 45.0000000  0  5 11 12 23 17 21
  21837743.044    -3283860.763 3  -2558850.418 2
  24063287.136    -2454271.613 2  -1912419.609 1
  21535172.409     2088647.554 4   1627517.516 2
  23770858.481     3622864.722 2   2823010.336 1
  20555619.740    -1308070.676 4  -1019274.683 2
 91  7  9  6  1  0.0000000  0  5 11 12 23 17 21
  21831305.301    -3317693.164 3  -2585213.309 2
  24058347.756    -2480235.670 2  -1932651.300 1
  21540282.374     2115487.517 4   1648431.771 2
  23779471.210     3668113.024 2   2858268.638 1
  20553275.365    -1320392.245 4  -1028875.867 2
 91  7  9  6  1 15.0000000  0  5 11 12 23 17 21
  21824893.043    -3351391.323 3  -2611471.587 1
  24053419.762    -2506073.487 2  -1952784.681 1
  21545397.434     2142371.581 4   1669380.382 2
  23788087.552     3713408.166 2   2893563.591 1
  20550947.174    -1332638.180 4  -1038418.121 3
 91  7  9  6  1 30.0000000  0  5 11 12 23 17 21
  21818509.562    -3384954.076 3  -2637624.369 1
  24048539.739    -2531783.881 2  -1972818.680
  21550521.787     2169300.339 4   1690363.846 2
  23796719.477     3758750.697 2   2928895.365 1
  20548628.878    -1344807.754 4  -1047900.916 2
 91  7  9  6  1 45.0000000  0  5 11 12 23 17 21
  21812146.768    -3418381.815 4  -2663671.914 1
  24043672.009    -2557367.304 2  -1992753.650 1
  21555655.728     2196272.919 4   1711381.415 2
  23805352.893     3804139.864 2   2964263.499 1
  20546328.276    -1356901.671 4  -1057324.734 2
 91  7  9  6  2  0.0000000  0  5 11 12 23 17 21
  21805807.051    -3451673.120 4  -2689613.185 1
  24038821.669    -2582822.227 2  -2012588.814 1
  21560796.274     2223290.491 4   1732434.068 2
  23814002.207     3849576.655 2   2999668.824 1
  20544040.552    -1368918.807 4  -1066688.710 2
 91  7  9  6  2 15.0000000  0  5 11 12 23 17 21
  21799498.518    -3484827.718 4  -2715447.903 2
  24034003.707    -2608148.461 2  -2032323.501 1
  21565946.706     2250352.752 4   1753521.543 2
  23822660.813     3895060.633 2   3035110.770 1
  20541768.726    -1380859.348 4  -1075993.009 2
 91  7  9  6  2 30.0000000  0  5 11 12 23 17 21
  21793219.668    -3517845.968 4  -2741176.391 1
  24029216.022    -2633346.394 2  -2051958.409 1
  21571104.039     2277458.905 4   1774643.217 2
  23831323.616     3940591.298 2   3070589.242 1
  20539508.295    -1392723.881 4  -1085238.056 2
 91  7  9  6  2 45.0000000  0  5 11 12 23 17 21
  21786963.599    -3550726.878 4  -2766797.867 2
  24024445.420    -2658415.076 2  -2071492.263 1
  21576267.960     2304609.544 4   1795799.548 2
  23839993.312     3986169.079 2   3106104.410 1
  20537264.650    -1404511.968 4  -1094423.599 3
 91  7  9  6  3  0.0000000  0  5 11 12 23 17 21
  21780725.522    -3583469.512 4  -2792311.586 2
  24019696.710    -2683353.393 2  -2090924.502 1
  21581443.878     2331805.101 4   1816990.898 2
  23848676.505     4031794.435 2   3141656.631 1
  20535041.990    -1416222.874 4  -1103548.984 2
 91  7  9  6  3 15.0000000  0  5 11 12 23 17 21
  21774526.707    -3616075.062 4  -2817718.482 2
  24014975.274    -2708162.710 2  -2110256.200 1
  21586628.189     2359043.827 4   1838215.890 2
  23857365.693     4077465.720 2   3177244.600 1
  20532823.526    -1427858.371 4  -1112615.578 2
 91  7  9  6  3 30.0000000  0  5 11 12 23 17 21
  21768347.384    -3648541.738 4  -2843017.188 2
  24010283.827    -2732841.164 2  -2129486.032 1
  21591819.690     2386327.242 4   1859475.685 2
  23866075.856     4123184.329 2   3212869.445 1
  20530624.843    -1439416.800 4  -1121622.120 2
 91  7  9  6  3 45.0000000  0  5 11 12 23 17 21
  21762195.947    -3680868.817 4  -2868207.100 2
  24005605.869    -2757388.058 2  -2148613.617 1
  21597023.790     2413655.423 4   1880770.352 2
  23874771.936     4168950.347 2   3248531.225 1
  20528440.258    -1450897.982 4  -1130568.519 2
 91  7  9  6  4  0.0000000  0  5 11 12 23 17 21
  21756067.884    -3713055.663 4  -2893287.739 2
  24000962.680    -2781802.760 2  -2167637.875 1
  21602229.085     2441028.437 4   1902099.974 2
  23883497.996     4214764.030 2   3284230.184 1
  20526271.860    -1462301.627 4  -1139454.482 2
 91  7  9  6  4 15.0000000  0  5 11 12 23 17 21
  21749972.811    -3745102.627 4  -2918259.391 2
  23996341.975    -2806085.698 2  -2186559.643 1
  21607447.878     2468445.570 4   1923463.974 2
  23892217.460     4260624.524 2   3319965.591 1
  20524116.051    -1473628.484 4  -1148280.593 3
 91  7  9  6  4 30.0000000  0  5 11 12 23 17 21
  21743900.807    -3777009.796 4  -2943122.078 1
  23991742.264    -2830237.021 2  -2205378.983 1
  21612672.657     2495906.193 4   1944861.851 2
  23900960.612     4306531.255 2   3355737.006 1
  20521974.935    -1484879.027 4  -1157047.231 2
 91  7  9  6  4 45.0000000  0  5 11 12 23 17 21
  21737857.596    -3808776.195 4  -2967875.118 2
  23987174.329    -2854255.740 2  -2224094.681 1
  21617907.033     2523410.919 4   1966294.106 2
  23909704.655     4352484.761 2   3391544.956 1
  20519847.003    -1496052.666 4  -1165753.932 2
 91  7  9  6  5  0.0000000  0  5 11 12 23 17 21
  21731836.259    -3840402.397 4  -2992518.894 2
  23982630.074    -2878142.436 2  -2242707.647 1
  21623150.404     2550958.798 4   1987759.984 2
  23918452.902     4398483.978 2   3427388.585 1
  20517738.267    -1507150.320 4  -1174401.455 3
 91  7  9  6  5 15.0000000  0  5 11 12 23 17 21
  21725845.808    -3871885.835 4  -3017051.419 2
  23978107.100    -2901894.565 2  -2261215.837 1
  21628398.871     2578551.892 4   2009261.080 2
  23927223.932     4444530.904 2   3463269.242
  20515636.720    -1518169.872 4  -1182988.122 3
 91  7  9  6  5 30.0000000  0  5 11 12 23 17 21
  21719884.735    -3903228.307 4  -3041474.087 2
  23973616.810    -2925513.895 2  -2279620.446 1
  21633658.132     2606187.820 4   2030795.552 2
  23935995.257     4490623.482 2   3499185.475 1
  20513558.861    -1529113.388 4  -1191515.517 3
 91  7  9  6  5 45.0000000  0  5 11 12 23 17 21
  21713944.952    -3934428.319 4  -3065785.795 1
  23969139.407    -2948998.973 2  -2297920.667 1
  21638929.982     2633867.785 4   2052364.351 1
  23944766.583     4536762.609 2   3535138.056 1
  20511488.794    -1539979.859 4  -1199982.884 2
 91  7  9  6  6  0.0000000  0  5 11 12 23 17 21
  21708032.443    -3965485.472 4  -3089986.136 2
  23964697.986    -2972349.327 2  -2316115.542 1
  21644203.926     2661591.825 4   2073967.554 1
  23953557.994     4582948.477 2   3571126.943 1
  20509433.115    -1550768.998 4  -1208389.986 2
 91  7  9  6  6 15.0000000  0  5 11 12 23 17 21
  21702153.508    -3996400.602 4  -3114075.836 2
  23960283.238    -2995565.980 2  -2334206.316 1
  21649485.976     2689358.470 4   2095603.850 2
  23962350.609     4629179.419 2   3607151.002 1
  20507397.521    -1561482.237 4  -1216737.974 2
 91  7  9  6  6 30.0000000  0  5 11 12 23 17 21
  21696297.363    -4027173.407 4  -3138054.624 2
  23955888.881    -3018648.604 2  -2352192.957 1
  21654776.115     2717167.584 4   2117273.295 2
  23971161.809     4675455.360 2   3643210.191 1
  20505374.229    -1572119.609 4  -1225026.846 2
 91  7  9  6  6 45.0000000  0  5 11 12 23 17 21
  21690467.001    -4057802.289 4  -3161921.260 2
  23951526.902    -3041595.637 2  -2370073.708 1
  21660079.140     2745020.373 4   2138976.754 2
  23979973.907     4721777.808 2   3679305.598 1
  20503365.316    -1582679.825 4  -1233255.581 2
 91  7  9  6  7  0.0000000  0  5 11 12 23 17 21
  21684663.617    -4088286.968 4  -3185675.540 2
  23947182.906    -3064406.708 2  -2387848.623 1
  21665387.260     2772916.646 4   2160714.100 2
  23988801.300     4768146.445 2   3715437.029 1
  20501368.994    -1593162.866 4  -1241424.162 2
 91  7  9  6  7 15.0000000  0  5 11 12 23 17 21
  21678893.214    -4118627.536 4  -3209317.544 2
  23942868.296    -3087081.967 2  -2405517.553 1
  21670704.080     2800855.984 4   2182485.004 2
  23997623.293     4814560.493 2   3751603.712 1
  20499386.169    -1603569.345 4  -1249533.110 2
 91  7  9  6  7 30.0000000  0  5 11 12 23 17 21
  21673147.390    -4148825.038 4  -3232848.050 2
  23938579.469    -3109622.482 2  -2423081.412 1
  21676028.996     2828836.692 4   2204288.143 2
  24006469.270     4861018.573 2   3787804.904 1
  20497424.329    -1613900.669 4  -1257583.471 2
 91  7  9  6  7 45.0000000  0  5 11 12 23 17 21
  21667429.154    -4178877.419 4  -3256265.463 2
  23934314.618    -3132026.187 2  -2440538.992 1
  21681358.712     2856860.511 4   2226124.875 2
  24015321.242     4907522.364 2   3824041.622 1
  20495469.677    -1624155.062 4  -1265573.918 3
 91  7  9  6  8  0.0000000  0  5 11 12 23 17 21
  21661738.193    -4208785.353 4  -3279570.309 1
  23930075.254    -3154293.948 2  -2457890.403 1
  21686700.407     2884926.241 4   2247994.289 2
  24024177.106     4954070.597 2   3860313.062 1
  20493532.721    -1634333.574 4  -1273505.220 3
 91  7  9  6  8 15.0000000  0  5 11 12 23 17 21
  21656074.210    -4238547.475 4  -3302761.553 2
  23925865.868    -3176424.407 2  -2475135.079 1
  21692052.301     2913034.814 4   2269897.065 2
  24033047.671     5000664.227 2   3896619.642 1
  20491611.356    -1644435.366 4  -1281376.765 3
 91  7  9  6  8 30.0000000  0  5 11 12 23 17 21
  21650436.612    -4268162.413 4  -3325838.116 2
  23921683.461    -3198416.068 2  -2492271.255 1
  21697408.698     2941187.296 4   2291834.040 1
  24041922.424     5047304.137 2   3932962.369
  20489704.972    -1654459.090 4  -1289187.410 2
 91  7  9  6  8 45.0000000  0  5 11 12 23 17 21
  21644831.698    -4297631.169 4  -3348800.743 2
  23917526.244    -3220270.010 2  -2509300.413 1
  21702772.284     2969382.273 4   2313804.155 2
  24050809.768     5093989.050 2   3969340.204 1
  20487811.484    -1664406.237 4  -1296938.424 2
 91  7  9  6  9  0.0000000  0  5 11 12 23 17 21
  21639249.556    -4326952.957 4  -3371648.880 2
  23913395.698    -3241985.459 2  -2526221.535 1
  21708145.162     2997620.053 4   2335807.634 2
  24059695.017     5140719.206 2   4005753.307 1
  20485934.181    -1674276.572 4  -1304629.647 2
 91  7  9  6  9 15.0000000  0  5 11 12 23 17 21
  21633696.208    -4356128.450 4  -3394383.012 2
  23909284.951    -3263562.991 2  -2543035.065 1
  21713527.638     3025899.372 4   2357843.469 2
  24068594.061     5187493.436 2   4042200.701 1
  20484068.272    -1684070.779 4  -1312261.476 3
 91  7  9  6  9 30.0000000  0  5 11 12 23 17 21
  21628174.627    -4385156.656 4  -3417002.371 2
  23905205.674    -3285001.671 2  -2559740.590 1
  21718917.007     3054220.989 4   2379912.254 2
  24077513.487     5234312.507 2   4078683.219
  20482219.457    -1693788.249 4  -1319833.511 2
 91  7  9  6  9 45.0000000  0  5 11 12 23 17 21
  21622675.235    -4414037.242 4  -3439506.688 2
  23901147.679    -3306301.296 2  -2576337.642 1
  21724315.066     3082584.660 4   2402013.803 2
  24086422.416     5281175.747 2   4115200.023 1
  20480387.725    -1703429.211 4  -1327345.964 2
 91  7  9  6 10  0.0000000  0  5 11 12 23 17 21
  21617209.713    -4442768.892 4  -3461894.966 2
  23897123.562    -3327460.544 2  -2592825.317 1
  21729722.426     3110991.337 4   2424148.866 2
  24095355.034     5328084.513 2   4151752.556 1
  20478564.386    -1712992.655 4  -1334797.991 2
 91  7  9  6 10 15.0000000  0  5 11 12 23 17 21
  21611772.086    -4471351.805 4  -3484167.344 2
  23893124.932    -3348479.537 2  -2609203.786 1
  21735133.678     3139440.469 4   2446317.024 2
  24104295.741     5375037.998 2   4188339.832 1
  20476763.236    -1722479.074 4  -1342190.018 2
 91  7  9  6 10 30.0000000  0  5 11 12 23 17 21
  21606359.927    -4499785.415 4  -3506323.388 2
  23889152.687    -3369357.724 2  -2625472.401 1
  21740556.926     3167932.190 4   2468518.381 2
  24113231.055     5422036.403 2   4224961.910 1
  20474967.774    -1731888.229 4  -1349521.756 2
 91  7  9  6 10 45.0000000  0  5 11 12 23 17 21
  21600980.452    -4528068.926 4  -3528362.457 2
  23885205.919    -3390094.414 2  -2641631.019 1
  21745986.169     3196466.822 4   2490753.170 2
  24122183.156     5469079.942 2   4261619.134 1
  20473196.001    -1741219.831 4  -1356793.176 2
 91  7  9  6 11  0.0000000  0  5 11 12 23 17 21
  21595627.956    -4556202.342 4  -3550284.572 2
  23881283.729    -3410689.535 2  -2657679.023 1
  21751422.601     3225043.998 4   2513021.082 2
  24131137.360     5516168.215 2   4298311.234 1
  20471433.817    -1750474.004 4  -1364004.208 2
 91  7  9  6 11 15.0000000  0  5 11 12 23 17 21
  21590300.343    -4584186.269 4  -3572090.203 2
  23877401.719    -3431143.969 2  -2673617.381 1
  21756870.734     3253662.417 4   2535321.144 2
  24140113.447     5563299.993 2   4335037.277 1
  20469686.632    -1759651.810 4  -1371155.747 3
 91  7  9  6 11 30.0000000  0  5 11 12 23 17 21
  21585001.812    -4612020.483 4  -3593779.178 2
  23873531.400    -3451457.411 2  -2689446.184 1
  21762321.562     3282321.956 4   2557653.247 1
  24149092.230     5610475.391 2   4371797.328 1
  20467955.631    -1768753.427 4  -1378247.910 3
 91  7  9  6 11 45.0000000  0  5 11 12 23 17 21
  21579735.955    -4639703.954 4  -3615350.693 2
  23869693.452    -3471628.798 2  -2705164.033 1
  21767783.480     3311023.496 4   2580018.084 2
  24158076.710     5657695.016 2   4408591.696 1
  20466239.315    -1777778.040 4  -1385280.113 2
 91  7  9  6 12  0.0000000  0  5 11 12 23 17 21
  21574497.086    -4667236.406 4  -3636804.544 2
  23865879.192    -3491657.821 2  -2720771.030 1
  21773253.792     3339766.913 4   2602415.534 2
  24167064.191     5704958.576 2   4445420.209 1
  20464536.200    -1786725.780 4  -1392252.377 3
 91  7  9  6 12 15.0000000  0  5 11 12 23 17 21
  21569283.694    -4694616.665 4  -3658139.774 2
  23862095.513    -3511543.346 2  -2736266.372 1
  21778732.201     3368552.848 3   2624846.157 1
  24176068.757     5752266.965 2   4482283.820 1
  20462848.965    -1795595.782 4  -1399164.048 2
 91  7  9  6 12 30.0000000  0  5 11 12 23 17 21
  21564102.986    -4721844.990 4  -3679356.629 2
  23858339.712    -3531285.567 2  -2751649.770 1
  21784213.899     3397380.514 3   2647309.252 2
  24185079.622     5799619.283 2   4519181.673 1
  20461175.227    -1804388.671 4  -1406015.644 2
 91  7  9  6 12 45.0000000  0  5 11 12 23 17 21
  21558948.951    -4748921.868 4  -3700455.468 2
  23854611.499    -3550885.006 2  -2766921.926 1
  21789710.900     3426249.216 3   2669804.352 1
  24194110.266     5847014.705 2   4556113.077 1
  20459517.674    -1813105.200 4  -1412807.732 2
 91  7  9  6 13  0.0000000  0  5 11 12 23 17 21
  21553826.998    -4775845.644 4  -3721435.026 2
  23850908.458    -3570340.174 2  -2782081.898 1
  21795213.591     3455160.157 3   2692332.334 2
  24203129.220     5894454.165 2   4593078.906 1
  20457871.814    -1821744.237 4  -1419539.430 3
 91  7  9  6 13 15.0000000  0  5 11 12 23 17 21
  21548734.719    -4802617.423 4  -3742296.129 2
  23847228.207    -3589652.241 2  -2797130.185 1
  21800721.072     3484111.769 4   2714891.995 1
  24212161.374     5941936.243 2   4630077.794 1
  20456242.434    -1830307.263 4  -1426211.958 2
 91  7  9  6 13 30.0000000  0  5 11 12 23 17 21
  21543665.526    -4829235.899 4  -3763037.761 1
  23843584.532    -3608820.020 2  -2812066.150 1
  21806240.855     3513104.931 4   2737484.082 2
  24221211.502     5989461.804 2   4667110.475 1
  20454626.858    -1838793.041 4  -1432824.218 3
 91  7  9  6 13 45.0000000  0  5 11 12 23 17 21
  21538632.613    -4855701.057 4  -3783659.951 2
  23839964.240    -3627843.369 2  -2826889.502 1
  21811766.030     3542139.280 4   2760108.245 1
  24230266.132     6037030.755 2   4704176.979 1
  20453028.663    -1847202.027 4  -1439376.672 2
 91  7  9  6 14  0.0000000  0  5 11 12 23 17 21
  21533623.380    -4882012.125 4  -3804162.054 2
  23836366.424    -3646721.539 2  -2841599.805 1
  21817296.903     3571215.079 4   2782764.713 2
  24239321.364     6084643.223 2   4741277.601 1
  20451441.862    -1855533.733 4  -1445868.909 3
 91  7  9  6 14 15.0000000  0  5 11 12 23 17 21
  21528646.525    -4908170.543 4  -3824545.221 2
  23832800.995    -3665455.957 2  -2856198.050 1
  21822841.264     3600330.542 4   2805452.094 1
  24248387.389     6132297.210 2   4778410.654 1
  20449867.652    -1863789.907 4  -1452302.290 2
 91  7  9  6 14 30.0000000  0  5 11 12 23 17 21
  21523699.650    -4934175.243 4  -3844808.611 1
  23829266.140    -3684045.772 2  -2870683.486 1
  21828386.821     3629486.432 4   2828170.962 2
  24257466.310     6179993.523 2   4815576.543 1
  20448315.926    -1871969.840 4  -1458676.255 2
 91  7  9  6 14 45.0000000  0  5 11 12 23 17 21
  21518779.762    -4960026.188 4  -3864952.194 2
  23825759.466    -3702490.801 2  -2885056.260 1
  21833940.781     3658682.315 4   2850921.003 2
  24266554.217     6227731.905 2   4852775.223 1
  20446769.898    -1880073.750 4  -1464990.966 3
 91  7  9  6 15  0.0000000  0  5 11 12 23 17 21
  21513888.344    -4985723.581 4  -3884976.125 2
  23822275.286    -3720791.355 2  -2899316.414 1
  21839505.821     3687917.739 4   2873701.837 2
  24275643.922     6275511.363 2   4890005.870 1
  20445246.947    -1888102.171 4  -1471246.872 2
 91  7  9  6 15 15.0000000  0  5 11 12 23 17 21
  21509028.711    -5011266.567 4  -3904879.710 2
  23818815.675    -3738946.567 2  -2913463.245 1
  21845077.771     3717193.014 4   2896513.730 2
  24284748.922     6323332.363 2   4927268.986 1
  20443728.805    -1896054.537 4  -1477443.504 2
 91  7  9  6 15 30.0000000  0  5 11 12 23 17 21
  21504196.057    -5036655.746 4  -3924663.463 2
  23815396.846    -3756956.977 2  -2927497.460 1
  21850653.308     3746507.273 4   2919356.024 2
  24293854.516     6371194.252 2   4964563.894 1
  20442235.834    -1903931.863 4  -1483581.694 2
 91  7  9  6 15 45.0000000  0  5 11 12 23 17 21
  21499393.975    -5061890.136 4  -3944326.602 2
  23811991.201    -3774821.613 2  -2941417.892 1
  21856242.342     3775861.025 4   2942229.085 2
  24302967.909     6419097.264 2   5001890.903 1
  20440747.967    -1911733.372 4  -1489660.807 2
 91  7  9  6 16  0.0000000  0  5 11 12 23 17 21
  21494623.679    -5086970.695 4  -3963869.872 2
  23808632.025    -3792541.556 2  -2955225.572 1
  21861833.165     3805252.862 4   2965131.804 1
  24312092.689     6467040.154 2   5039249.045 1
  20439275.684    -1919460.449 4  -1495681.916 2
 91  7  9  6 16 15.0000000  0  5 11 12 23 17 21
  21489877.970    -5111895.766 4  -3983291.986 2
  23805278.250    -3810115.299 2  -2968919.359 1
  21867435.985     3834683.961 4   2988065.111 2
  24321222.870     6515024.055 2   5076639.116 1
  20437820.789    -1927111.942 4  -1501644.125 2
 91  7  9  6 16 30.0000000  0  5 11 12 23 17 21
  21485167.624    -5136663.502 4  -4002591.514 2
  23801959.847    -3827540.858 2  -2982497.574 1
  21873042.705     3864156.080 4   3011030.427 2
  24330358.443     6563050.199 2   5114062.097 1
  20436381.190    -1934686.109 4  -1507546.068 2
 91  7  9  6 16 45.0000000  0  5 11 12 23 17 21
  21480480.077    -5161274.464 4  -4021768.860 2
  23798671.127    -3844818.922 2  -2995961.055 1
  21878659.921     3893668.112 4   3034026.821 1
  24339502.409     6611117.628 2   5151517.189 1
  20434955.071    -1942183.908 4  -1513388.521 2
 91  7  9  6 17  0.0000000  0  5 11 12 23 17 21
  21475829.393    -5185729.544 4  -4040824.711 2
  23795412.377    -3861950.380 2  -3009310.136 1
  21884284.327     3923218.720 4   3057053.270 2
  24348663.468     6659225.188 2   5189003.554 1
  20433542.449    -1949606.676 4  -1519172.522 2
 91  7  9  6 17 15.0000000  0  5 11 12 23 17 21
  21471205.094    -5210028.104 4  -4059758.636 2
  23792180.614    -3878934.528 2  -3022544.490 2
  21889914.431     3952808.154 4   3080109.951 2
  24357817.634     6707373.298 2   5226521.454 1
  20432144.818    -1956953.771 4  -1524897.513 2
 91  7  9  6 17 30.0000000  0  5 11 12 23 17 21
  21466612.572    -5234169.150 4  -4078569.829 2
  23788975.533    -3895770.512 2  -3035663.526 1
  21895552.928     3982437.105 4   3103197.439 2
  24366992.479     6755562.377 2   5264071.361 1
  20430759.183    -1964224.720 4  -1530563.148 2
 91  7  9  6 17 45.0000000  0  5 11 12 23 17 21
  21462045.239    -5258152.047 4  -4097257.784 2
  23785804.627    -3912457.617 2  -3048666.364 1
  21901194.417     4012106.043 4   3126316.068 2
  24376170.927     6803792.692 2   5301653.504 1
  20429388.530    -1971419.033 4  -1536169.173 2
 91  7  9  6 18  0.0000000  0  5 11 12 23 17 21
  21457515.372    -5281976.794 4  -4115822.518 2
  23782656.512    -3928996.049 2  -3061553.426 1
  21906850.600     4041814.296 4   3149465.338 1
  24385360.168     6852063.798 2   5339267.380 1
  20428033.163    -1978536.960 4  -1541715.558 2
 91  7  9  6 18 15.0000000  0  5 11 12 23 17 21
  21453010.389    -5305643.899 4  -4134264.383 2
  23779535.366    -3945386.339 2  -3074325.114 1
  21912509.487     4071561.072 4   3172644.638 2
  24394550.901     6900374.688 2   5376912.081 1
  20426694.591    -1985579.687 4  -1547203.416 2
 91  7  9  6 18 30.0000000  0  5 11 12 23 17 21
  21448537.183    -5329150.874 4  -4152581.486 2
  23776445.107    -3961626.068 2  -3086979.358 1
  21918178.557     4101348.530 4   3195855.645 2
  24403753.937     6948727.236 2   5414589.450 1
  20425368.610    -1992544.667 4  -1552630.588 2
 91  7  9  6 18 45.0000000  0  5 11 12 23 17 21
  21444091.862    -5352499.410 4  -4170775.152 2
  23773385.726    -3977716.802 2  -3099517.468 1
  21923854.232     4131174.522 4   3219096.664 2
  24412964.153     6997119.691 2   5452297.903 1
  20424057.619    -1999434.040 4  -1557998.861 2
 91  7  9  6 19  0.0000000  0  5 11 12 23 17 21
  21439680.420    -5375688.970 4  -4188844.906 2
  23770354.824    -3993658.002 2  -3111939.316 1
  21929535.595     4161039.310 4   3242367.909 1
  24422179.177     7045552.100 2   5490037.563 1
  20422760.117    -2006247.772 4  -1563308.251 2
 91  7  9  6 19 15.0000000  0  5 11 12 23 17 21
  21435298.950    -5398717.262 4  -4206789.017 2
  23767347.907    -4009447.627 2  -3124242.838 1
  21935228.659     4190944.840 4   3265670.907 1
  24431406.189     7094026.317 2   5527809.899 1
  20421482.098    -2012983.600 4  -1568556.900 3
 91  7  9  6 19 30.0000000  0  5 11 12 23 17 21
  21430946.264    -5421584.525 4  -4224607.672 2
  23764374.565    -4025085.634 2  -3136428.375
  21940928.310     4220890.535 4   3289005.216 2
  24440631.700     7142541.804 2   5565614.140 1
  20420211.582    -2019642.012 4  -1573745.236 2
 91  7  9  6 19 45.0000000  0  5 11 12 23 17 21
  21426623.853    -5444291.578 4  -4242301.445 2
  23761420.714    -4040573.174 2  -3148496.488 1
  21946630.963     4250874.946 4   3312369.693 1
  24449876.406     7191097.034 2   5603449.379 1
  20418962.950    -2026224.512 4  -1578874.507 2
 91  7  9  6 20  0.0000000  0  5 11 12 23 17 21
  21422335.925    -5466838.304 3  -4259870.327 2
  23758500.429    -4055909.850 2  -3160447.070 1
  21952346.511     4280898.014 4   3335764.280 2
  24459125.598     7239691.859 2   5641315.511 1
  20417723.600    -2032730.729 4  -1583944.258 2
 91  7  9  6 20 15.0000000  0  5 11 12 23 17 21
  21418075.576    -5489222.973 4  -4277312.901 2
  23755617.330    -4071094.154 2  -3172279.049 1
  21958068.045     4310961.053 4   3359190.014 2
  24468373.000     7288327.421 2   5679213.368 1
  20416500.453    -2039159.540 4  -1588953.655 2
 91  7  9  6 20 30.0000000  0  5 11 12 23 17 21
  21413847.005    -5511446.427 4  -4294629.859 2
  23752755.808    -4086126.968 2  -3183992.799 1
  21963796.480     4341062.864 4   3382645.993 2
  24477639.581     7337002.800 2   5717142.232
  20415289.888    -2045512.275 4  -1593903.847 2
 91  7  9  6 20 45.0000000  0  5 11 12 23 17 21
  21409649.006    -5533508.494 4  -4311821.060 2
  23749923.673    -4101008.110 2  -3195588.484 1
  21969527.908     4371203.262 4   3406132.014 1
  24486906.170     7385717.550 2   5755101.795 1
  20414094.313    -2051788.759 4  -1598794.615 3
 91  7  9  6 21  0.0000000  0  5 11 12 23 17 21
  21405480.393    -5555408.087 4  -4328885.654 2
  23747121.211    -4115736.602 2  -3207065.208 1
  21975273.139     4401383.041 4   3429648.714 1
  24496183.543     7434472.624 2   5793092.773 1
  20412913.736    -2057988.262 4  -1603625.354 2
 91  7  9  6 21 15.0000000  0  5 11 12 23 17 21
  21401346.559    -5577143.913 4  -4345822.666 2
  23744350.824    -4130311.123 2  -3218421.989 1
  21981024.356     4431603.248 3   3453196.926 2
  24505464.817     7483268.795 2   5831115.688 1
  20411752.040    -2064109.845 4  -1608395.390 2
 91  7  9  6 21 30.0000000  0  5 11 12 23 17 21
  21397239.100    -5598716.522 4  -4362632.490 2
  23741598.436    -4144732.117 2  -3229658.944 1
  21986780.066     4461862.870 3   3476775.840 2
  24514766.481     7532105.035 2   5869169.779 1
  20410602.638    -2070154.474 4  -1613105.514 2
 91  7  9  6 21 45.0000000  0  5 11 12 23 17 21
  21393162.825    -5620127.010 4  -4379315.975 2
  23738892.806    -4159000.712 2  -3240777.399 1
  21992545.679     4492160.526 3   3500384.398 1
  24524069.044     7580979.850 2   5907254.071 1
  20409465.520    -2076123.253 4  -1617756.527 3
 91  7  9  6 22  0.0000000  0  5 11 12 23 17 21
  21389121.922    -5641374.360 4  -4395872.343 2
  23736194.670    -4173116.016 2  -3251776.257 1
  21998321.483     4522496.855 4   3524023.091 2
  24533368.605     7629894.017 2   5945368.989 1
  20408341.901    -2082015.366 4  -1622347.751 2
 91  7  9  6 22 15.0000000  0  5 11 12 23 17 21
  21385109.498    -5662461.328 4  -4412303.718 2
  23733543.014    -4187080.946 2  -3262658.074 1
  22004098.779     4552868.677 3   3547689.455 2
  24542684.351     7678844.078 2   5983511.968 1
  20407236.264    -2087834.015 4  -1626881.745 2
 91  7  9  6 22 30.0000000  0  5 11 12 23 17 21
  21381127.358    -5683385.955 4  -4428608.605 2
  23730918.623    -4200893.471 2  -3273421.045 1
  22009886.876     4583277.734 3   3571384.829 1
  24552014.197     7727831.938 2   6021684.273 1
  20406142.624    -2093577.637 4  -1631357.248 3
 91  7  9  6 22 45.0000000  0  5 11 12 23 17 21
  21377177.588    -5704147.031 4  -4444786.050 2
  23728313.131    -4214552.528 2  -3284064.261 1
  22015680.959     4613724.777 3   3595109.791 2
  24561339.236     7776857.943 2   6059886.323 1
  20405062.167    -2099245.301 4  -1635773.582 3
 91  7  9  6 23  0.0000000  0  5 11 12 23 17 21
  21373259.002    -5724745.209 4  -4460836.578 2
  23725744.808    -4228058.514 2  -3294588.466 1
  22021477.747     4644208.952 3   3618863.690 2
  24570664.580     7825921.582 2   6098117.649 1
  20403999.702    -2104837.753 4  -1640131.313 3
 91  7  9  6 23 15.0000000  0  5 11 12 23 17 21
  21369366.496    -5745181.542 4  -4476760.970 2
  23723207.067    -4241412.815 2  -3304994.458 1
  22027288.329     4674728.396 3   3642645.047 1
  24580015.707     7875020.905 2   6136376.826 1
  20402952.829    -2110356.521 4  -1644431.649 2
 91  7  9  6 23 30.0000000  0  5 11 12 23 17 21
  21365511.760    -5765454.514 4  -4492558.090 2
  23720688.512    -4254613.739 2  -3315280.792 1
  22033104.295     4705284.893 3   3666455.293 1
  24589370.132     7924157.273 2   6174665.141 1
  20401913.153    -2115800.244 4  -1648673.505 3
 91  7  9  6 23 45.0000000  0  5 11 12 23 17 21
  21361684.317    -5785563.521 4  -4508227.413 2
  23718208.024    -4267660.895 2  -3325447.386 1
  22038922.974     4735878.470 3   3690294.458 1
  24598729.652     7973331.071 2   6212982.597 1
  20400893.555    -2121168.548 4  -1652856.575 3
 91  7  9  6 24  0.0000000  0  5 11 12 23 17 21
  21357889.243    -5805509.565 4  -4523769.785 2
  23715756.024    -4280555.179 2  -3335494.812 1
  22044753.938     4766507.825 3   3714161.516 2
  24608090.376     8022540.900 2   6251327.845 1
  20399884.452    -2126462.621 4  -1656981.821 2
 91  7  9  6 24 15.0000000  0  5 11 12 23 17 21
  21354123.251    -5825291.933 4  -4539184.616 2
  23713329.502    -4293296.005 2  -3345422.605 1
  22050592.092     4797173.304 3   3738056.678 1
  24617461.885     8071786.765 2   6289701.212 1
  20398893.044    -2131682.312 4  -1661049.132 3
 91  7  9  6 24 30.0000000  0  5 11 12 23 17 21
  21350393.232    -5844909.034 4  -4554470.663 2
  23710938.359    -4305881.663 2  -3355229.637 1
  22056430.551     4827876.185 3   3761980.974 2
  24626845.992     8121070.040 2   6328103.761 1
  20397916.015    -2136826.047 4  -1665057.164 2
 91  7  9  6 24 45.0000000  0  5 11 12 23 17 21
  21346688.995    -5864362.703 4  -4569629.370 2
  23708571.194    -4318314.174 2  -3364917.300 1
  22062281.303     4858614.297 3   3785932.762 1
  24636227.997     8170388.379 2   6366533.711 1
  20396949.788    -2141896.137 4  -1669007.855 3
 91  7  9  6 25  0.0000000  0  5 11 12 23 17 21
  21343017.138    -5883652.620 4  -4584660.426 2
  23706230.116    -4330593.302 2  -3374485.372 1
  22068134.752     4889387.582 3   3809911.961 1
  24645619.896     8219741.818 2   6404990.688
  20396000.941    -2146892.667 4  -1672901.278 3
 91  7  9  6 25 15.0000000  0  5 11 12 23 17 21
  21339380.356    -5902777.733 4  -4599563.109 2
  23703926.216    -4342717.889 2  -3383933.107 1
  22073999.884     4920196.839 3   3833919.157 1
  24655013.287     8269130.989 2   6443475.953 1
  20395062.896    -2151814.486 4  -1676736.464 3
 91  7  9  6 25 30.0000000  0  5 11 12 23 17 21
  21335772.052    -5921736.795 4  -4614336.402 2
  23701652.287    -4354686.750 2  -3393259.541 1
  22079869.526     4951043.024 3   3857955.149 1
  24664424.975     8318556.886 2   6481989.586 1
  20394138.933    -2156660.595 4  -1680512.622 3
 91  7  9  6 25 45.0000000  0  5 11 12 23 17 21
  21332197.026    -5940530.585 4  -4628980.895 2
  23699403.547    -4366500.657 2  -3402465.016 1
  22085747.859     4981924.988 3   3882019.040 2
  24673843.250     8368018.230 2   6520530.831
  20393230.562    -2161432.290 4  -1684230.848 3
 91  7  9  6 26  0.0000000  0  5 11 12 23 17 21
  21328651.386    -5959159.942 4  -4643497.311 2
  23697186.279    -4378160.581 2  -3411550.785 1
  22091628.582     5012841.701 3   3906109.969 1
  24683250.445     8417513.942 2   6559098.833 1
  20392338.079    -2166130.450 4  -1687891.738 3
 91  7  9  6 26 15.0000000  0  5 11 12 23 17 21
  21325136.912    -5977623.148 4  -4657884.183 2
  23694992.394    -4389665.009 2  -3420515.197 1
  22097522.803     5043794.238 3   3930228.826 1
  24692680.717     8467045.117 2   6597694.520 1
  20391456.390    -2170753.753 4  -1691494.306 3
 91  7  9  6 26 30.0000000  0  5 11 12 23 17 21
  21321656.021    -5995920.064 4  -4672141.530 2
  23692837.493    -4401013.588 2  -3429358.105 1
  22103416.126     5074782.835 3   3954375.778 1
  24702105.588     8516611.764 2   6636317.907 1
  20390592.682    -2175302.031 4  -1695038.380 3
 91  7  9  6 26 45.0000000  0  5 11 12 23 17 21
  21318205.712    -6014051.105 4  -4686269.604 2
  23690702.668    -4412206.856 2  -3438080.252 1
  22109320.835     5105806.616 3   3978550.140 1
  24711551.749     8566213.047 2   6674968.477 1
  20389740.073    -2179776.257 4  -1698524.743 3
 91  7  9  6 27  0.0000000  0  5 11 12 23 17 21
  21314788.078    -6032015.155 4  -4700267.537 2
  23688604.122    -4423243.731 2  -3446680.318 1
  22115230.342     5136866.579 3   4002752.715 2
  24720996.714     8615849.727 2   6713646.278 1
  20388903.353    -2184175.607 4  -1701952.817 3
 91  7  9  6 27 15.0000000  0  5 11 12 23 17 21
  21311397.727    -6049812.717 4  -4714135.748 2
  23686534.055    -4434124.752 2  -3455159.098 1
  22121148.252     5167961.645 3   4026982.625 1
  24730451.565     8665520.772 2   6752350.917 1
  20388079.825    -2188500.837 4  -1705323.111 3
 91  7  9  6 27 30.0000000  0  5 11 12 23 17 21
  21308045.148    -6067443.825 4  -4727874.260 2
  23684490.967    -4444850.015 2  -3463516.374 1
  22127070.044     5199091.407 3   4051239.584 1
  24739903.117     8715225.929 2   6791082.202 1
  20387273.686    -2192752.327 4  -1708635.964 2
 91  7  9  6 27 45.0000000  0  5 11 12 23 17 21
  21304723.150    -6084907.367 4  -4741482.222 2
  23682474.864    -4455418.489 2  -3471751.400 1
  22133002.639     5230256.933 3   4075524.416 1
  24749368.168     8764965.851 2   6829840.565 1
  20386475.033    -2196929.059 4  -1711890.562 3
 91  7  9  6 28  0.0000000  0  5 11 12 23 17 21
  21301428.130    -6102202.745 4  -4754959.139 1
  23680502.527    -4465829.442 2  -3479863.772 1
  22138940.031     5261458.435 3   4099837.280 2
  24758845.207     8814740.900 2   6868626.343 1
  20385695.575    -2201030.535 4  -1715086.475 2
 91  7  9  6 28 15.0000000  0  5 11 12 23 17 21
  21298173.883    -6119328.363 4  -4768303.763 2
  23678551.480    -4476081.314 2  -3487852.325 1
  22144886.717     5292697.182 3   4124179.142 1
  24768317.752     8864552.221 2   6907440.335 1
  20384930.505    -2205055.478 4  -1718222.794 3
 91  7  9  6 28 30.0000000  0  5 11 12 23 17 21
  21294943.315    -6136286.867 4  -4781518.178 2
  23676628.614    -4486176.840 2  -3495718.961
  22150837.293     5323970.237 3   4148547.747 1
  24777801.989     8914396.903 2   6946280.461 1
  20384177.424    -2209006.765 4  -1721301.689 3
 91  7  9  6 28 45.0000000  0  5 11 12 23 17 21
  21291745.135    -6153078.318 4  -4794602.420 2
  23674736.923    -4496115.995 2  -3503463.732 1
  22156795.373     5355277.190 3   4172942.794 2
  24787296.111     8964274.441 2   6985146.262 1
  20383440.536    -2212884.602 4  -1724323.337 3
 91  7  9  6 29  0.0000000  0  5 11 12 23 17 21
  21288588.321    -6169701.161 4  -4807555.251 2
  23672869.217    -4505897.327 2  -3511085.453 1
  22162758.837     5386619.305 3   4197365.208 1
  24796798.034     9014185.821 2   7024038.009 1
  20382715.942    -2216687.947 4  -1727286.960 3
 91  7  9  6 29 15.0000000  0  5 11 12 23 17 21
  21285450.990    -6186155.914 4  -4820377.163 2
  23671046.472    -4515521.452 2  -3518584.624 1
  22168728.312     5417995.791 3   4221814.434 2
  24806307.748     9064130.192 2   7062955.481 1
  20382008.126    -2220417.425 4  -1730193.081 2
 91  7  9  6 29 30.0000000  0  5 11 12 23 17 21
  21282353.533    -6202441.006 4  -4833066.871 2
  23669234.529    -4524986.874 2  -3525960.250 1
  22174706.172     5449407.983 3   4246291.476 1
  24815813.266     9114108.901 2   7101899.871 1
  20381312.307    -2224071.771 4  -1733040.637 2
 91  7  9  6 29 45.0000000  0  5 11 12 23 17 21
  21279287.259    -6218555.926 4  -4845623.945 2
  23667473.549    -4534293.186 2  -3533211.975 1
  22180691.824     5480855.859 3   4270796.298 1
  24825326.880     9164121.976 2   7140871.174 1
  20380629.986    -2227650.784 4  -1735829.507 3
 91  7  9  6 30  0.0000000  0  5 11 12 23 17 21
  21276254.559    -6234500.185 4  -4858048.042 2
  23665731.756    -4543439.702 2  -3540339.020 1
  22186684.674     5512340.100 3   4295329.475 1
  24834854.586     9214169.895 2   7179869.456 1
  20379962.647    -2231153.870 4  -1738559.153 3
 91  7  9  6 30 15.0000000  0  5 11 12 23 17 21
  21273253.637    -6250274.592 4  -4870339.756 2
  23664016.041    -4552427.453 2  -3547342.385 1
  22192681.127     5543859.214 3   4319889.840 2
  24844385.886     9264251.243 2   7218893.854 1
  20379309.398    -2234582.474 4  -1741230.756 3
 91  7  9  6 30 30.0000000  0  4 11 12 23 21
  21270284.491    -6265879.927 4  -4882499.727 2
  23662334.809    -4561257.133 2  -3554222.650 1
  22198685.668     5575412.327 3   4344476.688 1
  20378673.241    -2237937.376 4  -1743844.944 3
 91  7  9  6 30 45.0000000  0  4 11 12 23 21
  21267348.021    -6281315.982 4  -4894527.753 2
  23660688.948    -4569928.665 2  -3560979.567 1
  22204696.806     5606999.394 3   4369089.982 1
  20378048.471    -2241218.660 4  -1746401.780 2
 91  7  9  6 31  0.0000000  0  4 11 12 23 21
  21264441.233    -6296581.995 4  -4906423.302 2
  23659070.065    -4578441.344 2  -3567612.764 1
  22210710.945     5638620.789 3   4393730.034 1
  20377438.394    -2244425.641 4  -1748900.725 3
 91  7  9  6 31 15.0000000  0  4 11 12 23 21
  21261567.121    -6311678.866 4  -4918187.097 2
  23657482.663    -4586796.067 2  -3574123.024 1
  22216735.877     5670275.576 3   4418396.119 1
  20376842.103    -2247559.358 4  -1751342.560 3
 91  7  9  6 31 30.0000000  0  4 11 12 23 21
  21258729.585    -6326605.003 4  -4929817.874 2
  23655925.248    -4594991.289 2  -3580508.861 1
  22222764.403     5701964.952 3   4443089.135 1
  20376260.810    -2250618.646 4  -1753726.396 3
 91  7  9  6 31 45.0000000  0  4 11 12 23 21
  21255919.934    -6341362.023 4  -4941316.841 2
  23654385.807    -4603028.732 2  -3586771.846 1
  22228802.519     5733686.890 3   4467807.537 2
  20375692.098    -2253605.254 4  -1756053.606 3
 91  7  9  6 32  0.0000000  0  4 11 12 23 21
  21253142.060    -6355949.280 4  -4952683.544 2
  23652884.452    -4610907.620 2  -3592911.154 1
  22234846.638     5765441.945 3   4492551.748 1
  20375135.087    -2256518.639 4  -1758323.770 3
 91  7  9  6 32 15.0000000  0  4 11 12 23 21
  21250397.752    -6370365.257 4  -4963916.717 2
  23651423.258    -4618626.671 2  -3598925.937 1
  22240897.047     5797231.193 3   4517322.586 1
  20374596.661    -2259357.787 4  -1760536.103 3
 91  7  9  6 32 30.0000000  0  4 11 12 23 21
  21247691.232    -6384609.962 4  -4975016.486 2
  23649987.855    -4626185.800 2  -3604816.233 1
  22246950.161     5829054.527 3   4542119.970 1
  20374066.925    -2262122.685 4  -1762690.566 3
 91  7  9  6 32 45.0000000  0  4 11 12 23 21
  21245008.985    -6398683.870 4  -4985983.142 2
  23648572.538    -4633585.634 2  -3610582.234 1
  22253013.161     5860911.060 3   4566943.252 1
  20373556.384    -2264814.303 4  -1764787.932 3
 91  7  9  6 33  0.0000000  0  4 11 12 23 21
  21242366.612    -6412587.404 4  -4996817.099 2
  23647200.985    -4640826.442 2  -3616224.330 1
  22259081.858     5892800.247 3   4591791.978 1
  20373058.128    -2267433.158 4  -1766828.646 3
 91  7  9  6 33 15.0000000  0  4 11 12 23 21
  21239752.429    -6426319.231 4  -5007517.239 2
  23645848.620    -4647907.073 2  -3621741.758 1
  22265154.158     5924723.074 3   4616666.916 1
  20372573.361    -2269978.090 4  -1768811.710 3
 91  7  9  6 33 30.0000000  0  4 11 12 23 21
  21237171.211    -6439878.670 4  -5018082.986 2
  23644532.228    -4654826.961 2  -3627133.776 2
  22271234.547     5956679.885 3   4641568.324 1
  20372106.288    -2272448.453 4  -1770736.637 2
 91  7  9  6 33 45.0000000  0  4 11 12 23 21
  21234624.474    -6453267.021 4  -5028515.448 1
  23643244.925    -4661587.262 2  -3632401.523 1
  22277322.134     5988669.294 3   4666495.157 2
  20371650.602    -2274845.849 4  -1772604.691 3
 91  7  9  6 34  0.0000000  0  4 11 12 23 21
  21232107.716    -6466484.328 4  -5038814.644 2
  23641989.391    -4668188.127 2  -3637545.068 1
  22283415.113     6020690.960 3   4691447.087 1
  20371210.202    -2277170.556 4  -1774416.134 2
 91  7  9  6 34 15.0000000  0  4 11 12 23 21
  21229626.033    -6479530.183 4  -5048980.242 2
  23640767.736    -4674629.285 2  -3642564.055 1
  22289517.690     6052745.064 3   4716424.299 1
  20370777.908    -2279422.446 4  -1776170.848 2
 91  7  9  6 34 30.0000000  0  4 11 12 23 21
  21227175.831    -6492404.393 4  -5059012.093 2
  23639572.160    -4680910.439 2  -3647458.285 1
  22295622.657     6084831.645 3   4741426.860 1
  20370362.994    -2281601.430 4  -1777868.745 3
 91  7  9  6 34 45.0000000  0  4 11 12 23 21
  21224758.906    -6505108.726 4  -5068911.615 2
  23638405.369    -4687033.365 2  -3652229.548 1
  22301734.230     6116948.681 3   4766453.110 1
  20369962.764    -2283709.512 4  -1779511.404 3
 91  7  9  6 35  0.0000000  0  4 11 12 23 21
  21222375.258    -6517642.382 4  -5078678.030 2
  23637270.355    -4692997.438 2  -3656876.822
  22307851.194     6149096.513 3   4791503.347 1
  20369571.539    -2285746.115 4  -1781098.390 3
 91  7  9  6 35 15.0000000  0  4 11 12 23 21
  21220024.880    -6530002.718 4  -5088309.434 2
  23636167.126    -4698799.913 2  -3661398.123 1
  22313977.451     6181277.684 3   4816579.604 1
  20369200.094    -2287708.492 4  -1782627.500 3
 91  7  9  6 35 30.0000000  0  4 11 12 23 21
  21217701.488    -6542189.442 4  -5097805.564 2
  23635090.569    -4704440.546 2  -3665793.485 1
  22320107.607     6213492.234 3   4841681.830 1
  20368841.544    -2289596.765 4  -1784098.866 3
 91  7  9  6 35 45.0000000  0  4 11 12 23 21
  21215417.071    -6554202.821 4  -5107166.651 2
  23634055.082    -4709919.636 2  -3670062.818 1
  22326243.165     6245739.841 3   4866809.851 2
  20368494.686    -2291411.308 4  -1785512.806 3
 91  7  9  6 36  0.0000000  0  4 11 12 23 21
  21213164.135    -6566043.227 4  -5116392.915 2
  23633040.884    -4715237.706 2  -3674206.733 1
  22332387.108     6278019.673 3   4891962.960 1
  20368165.209    -2293152.794 4  -1786869.787 2
 91  7  9  6 36 15.0000000  0  4 11 12 23 21
  21210942.068    -6577711.243 4  -5125484.814 2
  23632047.077    -4720395.509 2  -3678225.853 1
  22338536.451     6310330.919 3   4917140.552 1
  20367850.128    -2294822.168 4  -1788170.611 3
 91  7  9  6 36 30.0000000  0  4 11 12 23 21
  21208756.585    -6589207.632 4  -5134443.008 2
  23631104.224    -4725393.745 2  -3682120.514 1
  22344687.295     6342672.719 3   4942341.968 1
  20367544.339    -2296420.191 4  -1789415.799 2
 91  7  9  6 36 45.0000000  0  4 11 12 23 21
  21206600.480    -6600530.655 4  -5143266.172 2
  23630188.061    -4730230.593 2  -3685889.714 1
  22350845.328     6375046.557 3   4967568.334 1
  20367252.048    -2297945.275 4  -1790604.183 2
 91  7  9  6 37  0.0000000  0  4 11 12 23 21
  21204478.542    -6611679.392 4  -5151953.477 2
  23629299.174    -4734905.178 2  -3689532.421 1
  22357016.258     6407453.187 3   4992820.229 1
  20366976.535    -2299396.596 4  -1791735.095 2
 91  7  9  6 37 15.0000000  0  4 11 12 23 21
  21202390.789    -6622654.336 4  -5160505.387 2
  23628435.772    -4739418.012 2  -3693048.938 1
  22363187.187     6439891.830 3   5018097.142 1
  20366714.816    -2300774.899 4  -1792809.127 2
 91  7  9  6 37 30.0000000  0  4 11 12 23 21
  21200334.813    -6633456.642 4  -5168922.756 2
  23627607.445    -4743770.262 2  -3696440.157 1
  22369368.010     6472360.955 3   5043397.765 1
  20366466.892    -2302081.433 4  -1793827.147 2
 91  7  9  6 37 45.0000000  0  4 11 12 23 21
  21198315.108    -6644085.355 4  -5177204.859 2
  23626816.898    -4747960.997 2  -3699705.753 1
  22375551.530     6504861.509 3   5068722.829 1
  20366231.847    -2303315.667 4  -1794788.876 2
 91  7  9  6 38  0.0000000  0  4 11 12 23 21
  21196326.585    -6654540.692 4  -5185351.878 2
  23626048.224    -4751990.646 2  -3702845.638 1
  22381744.342     6537393.027 3   5094072.125 1
  20366008.205    -2304477.872 4  -1795694.481 2
 91  7  9  6 38 15.0000000  0  4 11 12 23 21
  21194370.442    -6664820.312 4  -5193361.957 2
  23625305.639    -4755856.769 2  -3705858.081 1
  22387938.349     6569957.677 3   5119447.156 1
  20365798.950    -2305565.815 4  -1796542.250 3
 91  7  9  6 38 30.0000000  0  4 11 12 23 21
  21192443.676    -6674927.219 4  -5201237.438 2
  23624607.726    -4759562.535 2  -3708745.711 1
  22394143.158     6602552.188 3   5144845.451 1
  20365607.382    -2306582.662 4  -1797334.596 3
 91  7  9  6 38 45.0000000  0  4 11 12 23 21
  21190554.385    -6684860.017 4  -5208977.298 2
  23623930.797    -4763106.461 2  -3711507.177 1
  22400352.155     6635177.695 3   5170267.916 1
  20365432.304    -2307527.138 4  -1798070.523 2
 91  7  9  6 39  0.0000000  0  4 11 12 23 21
  21188696.574    -6694618.064 4  -5216580.924 1
  23623287.739    -4766488.152 2  -3714142.351 1
  22406563.560     6667834.481 3   5195714.768 1
  20365264.119    -2308399.086 4  -1798749.968 3
 91  7  9  6 39 15.0000000  0  4 11 12 23 21
  21186878.627    -6704200.734 4  -5224047.939 2
  23622672.261    -4769706.562 3  -3716650.067 1
  22412788.148     6700523.282 3   5221186.568 1
  20365109.728    -2309197.688 4  -1799372.259 2
 91  7  9  6 39 30.0000000  0  4 11 12 23 21
  21185081.971    -6713608.853 4  -5231378.944 2
  23622090.366    -4772762.768 3  -3719031.433 1
  22419012.144     6733242.995 3   5246682.427 1
  20364972.124    -2309923.955 4  -1799938.218 2
 91  7  9  6 39 45.0000000  0  4 11 12 23 21
  21183326.391    -6722841.562 4  -5238573.291 2
  23621539.053    -4775656.099 2  -3721286.035 1
  22425243.625     6765994.371 3   5272202.986 1
  20364851.011    -2310577.107 4  -1800447.181 3
 91  7  9  6 40  0.0000000  0  4 11 12 23 21
  21181605.582    -6731898.512 4  -5245630.650 2
  23621017.108    -4778386.257 2  -3723413.419 1
  22431481.109     6798777.562 3   5297748.310 1
  20364739.487    -2311157.164 4  -1800899.137 3
 91  7  9  6 40 15.0000000  0  5 15 11 12 23 21
  24597877.340           0.680 2         0.009 1
  21179913.853    -6740781.030 4  -5252552.063 2
  23620531.443    -4780954.472 3  -3725414.444 1
  22437728.183     6831590.804 3   5323317.086 1
  20364639.951    -2311665.639 4  -1801295.323 2
 91  7  9  6 40 30.0000000  0  5 15 11 12 23 21
  24587806.714      -52878.699 2    -41204.607 1
  21178255.995    -6749488.359 4  -5259336.943 2
  23620076.062    -4783360.027 3  -3727289.013 1
  22443974.061     6864434.835 3   5348909.837 1
  20364559.610    -2312101.875 4  -1801635.252 3
 91  7  9  6 40 45.0000000  0  5 15 11 12 23 21
  24577749.874     -105752.932 2    -82405.125 1
  21176634.721    -6758020.725 4  -5265985.528 2
  23619649.456    -4785603.212 3  -3729036.894 1
  22450231.630     6897309.131 3   5374526.158 1
  20364491.859    -2312466.214 4  -1801919.167 2
 91  7  9  6 41  0.0000000  0  5 15 11 12 23 21
  24567688.245     -158621.392 2   -123601.179 1
  21175043.419    -6766377.261 4  -5272497.044 2
  23619248.930    -4787683.222 3  -3730657.679 1
  22456495.490     6930214.301 3   5400166.572 1
  20364433.698    -2312757.884 4  -1802146.449 2
 91  7  9  6 41 15.0000000  0  5 15 11 12 23 21
  24557630.506     -211483.637 2   -164792.655 1
  21173482.401    -6774557.805 4  -5278871.502 2
  23618890.084    -4789599.991 3  -3732151.241 1
  22462764.455     6963150.586 3   5425831.213 1
  20364392.323    -2312976.736 4  -1802316.966 2
 91  7  9  6 41 30.0000000  0  5 15 11 12 23 21
  24547570.369     -264338.649 2   -205978.191 1
  21171958.560    -6782561.856 4  -5285108.433 2
  23618552.815    -4791353.004 2  -3733517.150 1
  22469038.210     6996118.135 3   5451520.184 1
  20364364.447    -2313122.677 4  -1802430.713 3
 91  7  9  6 41 45.0000000  0  5 15 11 12 23 21
  24537516.530     -317185.729 2   -247157.899 1
  21170470.388    -6790388.620 4  -5291207.234 2
  23618247.628    -4792941.480 2  -3734754.859 1
  22475317.060     7029117.878 3   5477234.292 1
  20364350.652    -2313194.844 4  -1802486.962 3
 91  7  9  6 42  0.0000000  0  5 15 11 12 23 21
  24527466.287     -370026.432 2   -288332.366 1
  21169015.799    -6798039.400 4  -5297168.893 2
  23617978.711    -4794366.832 2  -3735865.560 1
  22481601.311     7062147.966 3   5502972.028 1
  20364354.247    -2313194.701 4  -1802486.861 3
 91  7  9  6 42 15.0000000  0  5 15 11 12 23 21
  24517410.651     -422860.525 2   -329502.004 1
  21167593.580    -6805514.484 4  -5302993.644 2
  23617736.485    -4795629.433 2  -3736849.339 1
  22487894.252     7095207.892 3   5528733.007 1
  20364365.642    -2313122.671 4  -1802430.718 3
 91  7  9  6 42 30.0000000  0  5 15 11 12 23 21
  24507357.406     -475687.553 2   -370665.921 1
  21166204.639    -6812813.061 4  -5308680.826 2
  23617531.122    -4796728.430 2  -3737705.617 1
  22494186.303     7128298.342 3   5554517.764 1
  20364394.121    -2312978.167 4  -1802318.106 2
 91  7  9  6 42 45.0000000  0  5 15 11 12 23 21
  24497298.176     -528507.959 2   -411824.799 1
  21164850.179    -6819936.132 4  -5314231.253 2
  23617347.650    -4797664.831 2  -3738435.292
  22500489.435     7161418.206 3   5580325.431 1
  20364432.799    -2312762.338 4  -1802149.931 2
 91  7  9  6 43  0.0000000  0  5 15 11 12 23 21
  24487253.324     -581321.685 2   -452978.569 1
  21163528.997    -6826883.523 4  -5319644.772 2
  23617204.951    -4798438.520 2  -3739038.088 1
  22506799.469     7194567.623 3   5606156.179 1
  20364487.959    -2312475.147 4  -1801926.128 2
 91  7  9  6 43 15.0000000  0  5 15 11 12 23 21
  24477204.582     -634128.011 2   -494126.299 1
  21162242.288    -6833654.811 4  -5324921.076 2
  23617080.531    -4799049.097 2  -3739513.779 1
  22513109.502     7227746.696 3   5632010.005 1
  20364556.312    -2312116.261 4  -1801646.482 2
 91  7  9  6 43 30.0000000  0  5 15 11 12 23 21
  24467156.144     -686927.675 2   -535268.814 1
  21160985.558    -6840250.922 4  -5330060.880 2
  23617001.988    -4799497.502 2  -3739863.284 1
  22519430.922     7260954.352 3   5657886.141 1
  20364635.754    -2311686.801 4  -1801311.819 3
 91  7  9  6 43 45.0000000  0  5 15 11 12 23 21
  24457106.197     -739719.284 2   -576405.019 1
  21159765.395    -6846670.319 4  -5335062.974 2
  23616943.529    -4799782.178 2  -3740085.011 1
  22525756.539     7294192.026 3   5683785.624 1
  20364734.688    -2311185.408 4  -1800921.167 3
 91  7  9  6 44  0.0000000  0  5 15 11 12 23 21
  24447061.355     -792502.372 2   -617534.579 1
  21158575.221    -6852912.595 4  -5339927.039 2
  23616925.242    -4799902.784 2  -3740178.889 1
  22532088.464     7327459.939 3   5709708.694 1
  20364841.710    -2310611.506 4  -1800473.961 3
 91  7  9  6 44 15.0000000  0  5 15 11 12 23 21
  24437022.803     -845277.920 2   -658658.162 1
  21157420.723    -6858979.038 4  -5344654.150 2
  23616929.744    -4799860.598 2  -3740146.005 1
  22538423.678     7360756.823 3   5735654.322 1
  20364965.528    -2309966.713 4  -1799971.527 3
 91  7  9  6 44 30.0000000  0  5 15 11 12 23 21
  24426979.758     -898045.183 2   -699775.330 1
  21156298.901    -6864868.908 4  -5349243.673 2
  23616972.314    -4799654.850 2  -3739985.682 1
  22544763.089     7394083.222 3   5761622.901 1
  20365102.233    -2309250.186 4  -1799413.187 2
 91  7  9  6 44 45.0000000  0  5 15 11 12 23 21
  24416939.103     -950804.117 2   -740886.365 1
  21155211.552    -6870582.438 4  -5353695.765 2
  23617042.158    -4799286.041 2  -3739698.271 1
  22551110.292     7427438.617 3   5787614.133 1
  20365253.029    -2308462.551 4  -1798799.448 2
 91  7  9  6 45  0.0000000  0  5 15 11 12 23 21
  24406905.647    -1003554.118 2   -781990.057 1
  21154159.277    -6876119.246 4  -5358010.141 2
  23617148.290    -4798753.846 2  -3739283.607 1
  22557464.091     7460823.306 3   5813628.193 1
  20365417.018    -2307603.377 4  -1798129.968 2
 91  7  9  6 45 15.0000000  0  5 15 11 12 23 21
  24396871.597    -1056293.906 2   -823085.849 1
  21153138.789    -6881478.113 4  -5362185.886 2
  23617271.803    -4798056.928 2  -3738740.526 1
  22563825.088     7494238.240 3   5839665.794 1
  20365593.596    -2306671.502 4  -1797403.829 3
 91  7  9  6 45 30.0000000  0  5 15 11 12 23 21
  24386827.950    -1109022.824 2   -864173.429 1
  21152155.765    -6886658.507 4  -5366222.552 2
  23617441.489    -4797194.803 2  -3738068.603 1
  22570187.585     7527683.952 3   5865727.408 1
  20365784.859    -2305666.715 4  -1796620.867 2
 91  7  9  6 45 45.0000000  0  5 15 11 12 23 21
  24376805.286    -1161742.346 2   -905253.738 1
  21151202.425    -6891661.913 4  -5370121.314 2
  23617637.551    -4796169.102 2  -3737269.310 2
  22576557.875     7561158.760 3   5891811.652 1
  20365988.416    -2304590.488 4  -1795782.259 3
 91  7  9  6 46  0.0000000  0  5 15 11 12 23 21
  24366773.330    -1214451.793 2   -946325.947 1
  21150281.464    -6896488.113 4  -5373881.960 1
  23617862.990    -4794979.450 2  -3736342.283 1
  22582936.557     7594662.719 3   5917918.622 1
  20366207.268    -2303442.669 4  -1794887.855 2
 91  7  9  6 46 15.0000000  0  5 15 11 12 23 21
  24356741.375    -1267151.872 2   -987390.704 1
  21149398.875    -6901137.754 4  -5377505.039 2
  23618115.722    -4793626.562 2  -3735288.073 1
  22589317.037     7628195.150 3   5944047.789 1
  20366439.304    -2302224.035 4  -1793938.280 3
 91  7  9  6 46 30.0000000  0  5 15 11 12 23 21
  24346716.617    -1319840.729 2  -1028446.730 1
  21148544.766    -6905608.988 4  -5380989.073 2
  23618405.622    -4792108.779 2  -3734105.393 1
  22595701.418     7661757.627 3   5970200.379 1
  20366682.743    -2300932.940 4  -1792932.250 2
 91  7  9  6 46 45.0000000  0  5 15 11 12 23 21
  24336696.353    -1372519.030 2  -1069494.573 1
  21147731.132    -6909902.924 4  -5384335.005 2
  23618735.990    -4790427.045 2  -3732794.918 1
  22602094.192     7695349.105 3   5996375.572 1
  20366942.961    -2299570.410 4  -1791870.542 2
 91  7  9  6 47  0.0000000  0  5 15 11 12 23 21
  24326672.495    -1425185.701 2  -1110533.314 1
  21146942.679    -6914018.443 4  -5387541.881 2
  23619075.353    -4788580.408 2  -3731355.911 1
  22608493.562     7728970.478 3   6022574.057 1
  20367219.965    -2298135.580 4  -1790752.510 2
 91  7  9  6 47 15.0000000  0  5 15 11 12 23 21
  24316649.238    -1477841.080 2  -1151563.434 1
  21146199.195    -6917955.985 4  -5390610.084 2
  23619461.788    -4786569.263 2  -3729788.681 1
  22614896.230     7762621.161 3   6048795.340 1
  20367502.074    -2296628.909 4  -1789578.489 3
 91  7  9  6 47 30.0000000  0  5 15 11 12 23 21
  24306632.272    -1530484.444 2  -1192584.079 1
  21145481.188    -6921715.137 4  -5393539.312 2
  23619877.897    -4784393.363 2  -3728093.329
  22621304.901     7796301.373 3   6075039.649 1
  20367805.464    -2295049.911 4  -1788348.093 3
 91  7  9  6 47 45.0000000  0  5 15 11 12 23 21
  24296615.306    -1583116.285 2  -1233595.763 1
  21144803.055    -6925296.618 4  -5396330.051 2
  23620320.993    -4782053.418 2  -3726269.932 1
  22627721.058     7830010.222 3   6101306.281 1
  20368119.044    -2293399.457 4  -1787062.019 2
 91  7  9  6 48  0.0000000  0  5 15 11 12 23 21
  24286607.336    -1635734.277 2  -1274596.618 1
  21144152.808    -6928698.080 4  -5398980.540 2
  23620794.662    -4779547.119 2  -3724316.941 1
  22634142.913     7863749.959 3   6127597.005 1
  20368444.020    -2291675.455 4  -1785718.657 2
 91  7  9  6 48 15.0000000  0  5 15 11 12 23 21
  24276593.964    -1688338.556 2  -1315586.771 1
  21143537.635    -6931919.685 4  -5401490.835 2
  23621304.007    -4776874.731 2  -3722234.583 1
  22640569.557     7897520.308 3   6153911.567 1
  20368789.682    -2289878.078 4  -1784318.104 2
 91  7  9  6 48 30.0000000  0  5 15 11 12 23 21
  24266578.194    -1740929.274 2  -1356566.400 1
  21142961.734    -6934962.026 4  -5403861.482 2
  23621846.936    -4774036.709 2  -3720023.045 1
  22646996.211     7931320.731 3   6180249.559 1
  20369144.035    -2288007.853 4  -1782860.760 2
 91  7  9  6 48 45.0000000  0  5 15 11 12 23 21
  24256577.125    -1793507.281 2  -1397536.097 1
  21142414.914    -6937826.039 4  -5406093.188 2
  23622414.740    -4771033.981 2  -3717683.236 1
  22653434.556     7965150.140 3   6206610.151 1
  20369513.980    -2286065.911 4  -1781347.571 3
 91  7  9  6 49  0.0000000  0  5 15 11 12 23 21
  24246580.244    -1846070.697 2  -1438494.740 1
  21141905.865    -6940509.968 4  -5408184.577 2
  23623017.627    -4767864.986 2  -3715213.800 1
  22659879.794     7999010.019 3   6232994.465 1
  20369897.117    -2284050.576 4  -1779777.188 3
 91  7  9  6 49 15.0000000  0  5 15 11 12 23 21
  24236571.969    -1898621.018 2  -1479442.887 1
  21141427.991    -6943015.650 4  -5410137.012 2
  23623655.285    -4764531.491 2  -3712616.208 1
  22666324.133     8032898.614 3   6259401.170 1
  20370295.235    -2281963.764 4  -1778151.092 3
 91  7  9  6 49 30.0000000  0  5 15 11 12 23 21
  24226582.888    -1951155.439 2  -1520378.689 1
  21140985.803    -6945340.554 4  -5411948.621 2
  23624317.826    -4761031.118 2  -3709888.620 1
  22672782.563     8066818.373 3   6285832.150 1
  20370705.655    -2279802.964 4  -1776467.327 3
 91  7  9  6 49 45.0000000  0  5 15 11 12 23 21
  24216587.805    -2003674.946 2  -1561303.012 1
  21140578.078    -6947485.899 4  -5413620.324 2
  23625019.935    -4757364.934 2  -3707031.652 1
  22679243.986     8100767.991 3   6312286.426 1
  20371129.259    -2277569.564 4  -1774727.023 3
 91  7  9  6 50  0.0000000  0  5 15 11 12 23 21
  24206594.527    -2056179.175 2  -1602215.371 1
  21140202.139    -6949451.115 3  -5415151.647 2
  23625752.330    -4753532.630 2  -3704045.432 1
  22685704.511     8134747.913 3   6338764.284 1
  20371573.254    -2275262.958 4  -1772929.655 3
 91  7  9  6 50 15.0000000  0  5 15 11 12 23 21
  24196606.939    -2108668.781 2  -1643116.546 1
  21139863.378    -6951237.458 4  -5416543.605 2
  23626508.709    -4749535.473 2  -3700930.787 1
  22692177.931     8168756.540 3   6365264.527 1
  20372021.445    -2272884.450 4  -1771076.265 3
 91  7  9  6 50 30.0000000  0  5 15 11 12 23 21
  24186617.850    -2161143.517 2  -1684005.741 1
  21139554.893    -6952844.764 4  -5417796.043 2
  23627298.663    -4745373.319 2  -3697687.604 1
  22698659.447     8202793.913 3   6391787.131 1
  20372490.620    -2270433.991 4  -1769166.843 3
 91  7  9  6 50 45.0000000  0  5 15 11 12 23 21
  24176641.360    -2213601.587 2  -1724881.979 1
  21139286.875    -6954271.321 4  -5418907.641 2
  23628126.091    -4741044.272 2  -3694314.231 1
  22705141.261     8236861.907 3   6418333.608 1
  20372967.884    -2267909.858 4  -1767199.999 2
 91  7  9  6 51  0.0000000  0  5 15 11 12 23 21
  24166660.969    -2266043.418 2  -1765745.884 1
  21139051.236    -6955517.645 4  -5419878.810 2
  23628984.092    -4736548.979 2  -3690811.288 1
  22711628.763     8270959.891 3   6444903.496 1
  20373463.740    -2265312.767 4  -1765176.299 3
 91  7  9  6 51 15.0000000  0  5 15 11 12 23 21
  24156678.782    -2318469.152 2  -1806597.049 1
  21138845.586    -6956584.126 4  -5420709.835 2
  23629869.682    -4731887.928 2  -3687179.345 1
  22718125.872     8305087.347 3   6471496.282 1
  20373969.195    -2262643.163 4  -1763096.099 2
 91  7  9  6 51 30.0000000  0  5 15 11 12 23 21
  24146708.879    -2370881.016 2  -1847437.570 1
  21138678.901    -6957473.104 4  -5421402.524 2
  23630782.547    -4727063.460 2  -3683419.966 1
  22724623.269     8339242.006 3   6498110.306 1
  20374496.226    -2259903.534 4  -1760961.325 2
 91  7  9  6 51 45.0000000  0  5 15 11 12 23 21
  24136739.282    -2423276.585 2  -1888265.170 1
  21138543.688    -6958182.590 4  -5421955.344 1
  23631738.286    -4722073.630 2  -3679531.761 1
  22731127.567     8373425.575 3   6524746.842 1
  20375024.767    -2257091.629 4  -1758770.248 3
 91  7  9  6 52  0.0000000  0  5 15 11 12 23 21
  24126774.483    -2475655.536 2  -1929079.987 1
  21138441.159    -6958712.498 4  -5422368.261 2
  23632715.315    -4716918.414 2  -3675514.642 1
  22737639.657     8407638.110 3   6551405.976 1
  20375576.081    -2254207.593 4  -1756522.913 2
 91  7  9  6 52 15.0000000  0  5 15 11 12 23 21
  24116808.184    -2528016.529 2  -1969880.760 1
  21138372.214    -6959061.712 4  -5422640.375 2
  23633730.709    -4711596.777 2  -3671367.846 1
  22744154.748     8441880.586 3   6578088.437 1
  20376140.892    -2251250.331 4  -1754218.566 3
 91  7  9  6 52 30.0000000  0  5 15 11 12 23 21
  24106835.585    -2580361.241 2  -2010668.973 1
  21138340.131    -6959232.129 4  -5422773.150 2
  23634769.189    -4706110.597 2  -3667092.904 1
  22750674.332     8476151.022 3   6604792.637 2
  20376716.191    -2248221.662 4  -1751858.544 2
 91  7  9  6 52 45.0000000  0  5 15 11 12 23 21
  24096888.176    -2632688.290 2  -2051443.136 1
  21138344.328    -6959222.296 4  -5422765.471 2
  23635850.238    -4700458.494 2  -3662688.644 1
  22757203.820     8510450.851 3   6631519.796 1
  20377304.682    -2245120.363 4  -1749441.930 3
 91  7  9  6 53  0.0000000  0  5 15 11 12 23 21
  24086939.257    -2684997.048 2  -2092203.248 1
  21138377.606    -6959032.064 4  -5422617.266 2
  23636956.774    -4694640.341 2  -3658155.026 1
  22763736.291     8544780.139 3   6658269.885 1
  20377910.265    -2241946.322 4  -1746968.671 3
 91  7  9  6 53 15.0000000  0  5 15 11 12 23 21
  24076984.047    -2737287.146 2  -2132948.777 1
  21138452.258    -6958661.217 4  -5422328.276 2
  23638095.383    -4688655.932 2  -3653491.840 1
  22770273.571     8579139.158 3   6685043.142 1
  20378525.438    -2238699.313 4  -1744438.528 2
 91  7  9  6 53 30.0000000  0  5 15 11 12 23 21
  24067039.639    -2789559.553 2  -2173680.445 1
  21138553.582    -6958111.009 4  -5421899.527 2
  23639266.380    -4682506.478 2  -3648699.979 1
  22776818.938     8613526.454 3   6711838.419 1
  20379158.602    -2235380.658 4  -1741852.560 3
 91  7  9  6 53 45.0000000  0  5 15 11 12 23 21
  24057092.221    -2841813.695 2  -2214398.005 1
  21138693.289    -6957381.106 4  -5421330.760 2
  23640465.550    -4676191.909 2  -3643779.510 1
  22783363.406     8647942.261 3   6738655.928 1
  20379806.450    -2231990.011 4  -1739210.496 2
 91  7  9  6 54  0.0000000  0  5 15 11 12 23 21
  24047158.598    -2894048.627 2  -2255100.451 1
  21138867.468    -6956470.854 4  -5420621.477 2
  23641696.192    -4669711.381 3  -3638729.763 1
  22789922.568     8682387.223 3   6765496.209 1
  20380463.302    -2228526.597 4  -1736511.718 2
 91  7  9  6 54 15.0000000  0  5 15 11 12 23 21
  24037215.682    -2946265.442 2  -2295788.710 1
  21139075.222    -6955381.669 4  -5419772.746 2
  23642965.818    -4663066.266 3  -3633551.697 1
  22796482.620     8716859.914 3   6792358.010 1
  20381136.331    -2224992.059 4  -1733757.542 2
 91  7  9  6 54 30.0000000  0  5 15 11 12 23 21
  24027288.654    -2998463.681 2  -2336462.739 1
  21139317.152    -6954113.096 4  -5418784.269 2
  23644255.520    -4656256.260 3  -3628245.266 1
  22803047.182     8751360.799 3   6819241.808 1
  20381823.756    -2221385.840 4  -1730947.500 3
 91  7  9  6 54 45.0000000  0  5 15 11 12 23 21
  24017358.930    -3050643.349 2  -2377122.143 1
  21139591.164    -6952665.514 4  -5417656.263 1
  23645588.699    -4649281.766 3  -3622810.581 1
  22809618.027     8785889.235 3   6846147.128 1
  20382521.372    -2217708.434 4  -1728081.985 3
 91  7  9  6 55  0.0000000  0  5 15 11 12 23 21
  24007425.909    -3102803.754 2  -2417766.495 1
  21139905.651    -6951038.172 4  -5416388.217 2
  23646943.159    -4642142.077 3  -3617247.169 1
  22816193.077     8820445.969 3   6873074.430 1
  20383235.479    -2213959.147 4  -1725160.458 3
 91  7  9  6 55 15.0000000  0  5 15 11 12 23 21
  23997509.072    -3154944.832 2  -2458395.717 1
  21140244.709    -6949231.661 4  -5414980.533 2
  23648337.501    -4634837.537 3  -3611555.267 1
  22822772.324     8855030.484 3   6900023.384 1
  20383963.676    -2210138.387 4  -1722183.248 3
 91  7  9  6 55 30.0000000  0  5 15 11 12 23 21
  23987585.343    -3207067.579 2  -2499010.864 1
  21140623.047    -6947247.169 4  -5413434.173 2
  23649755.514    -4627369.601 3  -3605735.930 1
  22829359.362     8889641.498 3   6926992.956 1
  20384700.564    -2206247.542 4  -1719151.427 3
 91  7  9  6 55 45.0000000  0  5 15 11 12 23 21
  23977671.202    -3259170.794 2  -2539610.664 1
  21141035.265    -6945083.618 4  -5411748.275 2
  23651208.611    -4619737.313 3  -3599788.697 1
  22835953.895     8924280.119 3   6953984.100 1
  20385455.740    -2202285.432 4  -1716064.073 3
 91  7  9  6 56  0.0000000  0  5 15 11 12 23 21
  23967760.063    -3311253.386 2  -2580194.423 1
  21141482.252    -6942740.239 4  -5409922.259 2
  23652692.281    -4611939.791 3  -3593712.717 1
  22842548.429     8958947.053 3   6980997.257 1
  20386223.209    -2198251.321 4  -1712920.602 3
 91  7  9  6 56 15.0000000  0  5 15 11 12 23 21
  23957858.216    -3363315.317 2  -2620762.146 1
  21141962.823    -6940217.430 4  -5407956.443 2
  23654206.236    -4603977.446 3  -3587508.318 1
  22849150.762     8993641.899 3   7008032.177 1
  20387004.769    -2194145.699 4  -1709721.435 2
 91  7  9  6 56 30.0000000  0  5 15 11 12 23 21
  23947956.675    -3415355.989 2  -2661313.234 1
  21142477.866    -6937514.581 4  -5405850.326 1
  23655759.462    -4595849.766 2  -3581175.302 1
  22855763.287     9028365.167 3   7035089.257 1
  20387800.717    -2189967.985 4  -1706466.091 3
 91  7  9  6 56 45.0000000  0  5 15 11 12 23 21
  23938053.327    -3467376.855 2  -2701848.853 1
  21143024.991    -6934633.400 4  -5403605.252 1
  23657329.476    -4587558.515 2  -3574714.657 1
  22862373.412     9063114.988 3   7062167.037 1
  20388609.858    -2185719.860 4  -1703155.858 3
 91  7  9  6 57  0.0000000  0  5 15 11 12 23 21
  23928159.281    -3519377.271 2  -2742368.686 1
  21143602.393    -6931573.509 4  -5401220.919 2
  23658939.354    -4579103.303 2  -3568126.148 1
  22868991.625     9097891.799 3   7089265.846 1
  20389432.190    -2181400.847 4  -1699790.377 2
 91  7  9  6 57 15.0000000  0  5 15 11 12 23 21
  23918265.531    -3571357.354 2  -2782872.526 1
  21144223.560    -6928335.400 4  -5398697.692 2
  23660582.223    -4570484.625 2  -3561410.273 1
  22875613.738     9132695.062 3   7116385.305 1
  20390265.613    -2177011.544 5  -1696370.144 3
 91  7  9  6 57 30.0000000  0  5 15 11 12 23 21
  23908378.072    -3623314.900 2  -2823358.843 1
  21144874.706    -6924917.203 4  -5396034.173 2
  23662252.967    -4561700.756 2  -3554565.729 1
  22882243.948     9167526.614 3   7143526.743 1
  20391114.025    -2172550.189 4  -1692893.783 3
 91  7  9  6 57 45.0000000  0  5 15 11 12 23 21
  23898496.319    -3675249.910 2  -2863827.528 1
  21145557.934    -6921319.426 4  -5393230.716 2
  23663957.583    -4552752.102 2  -3547592.543 1
  22888874.159     9202386.032 3   7170689.990 1
  20391975.926    -2168017.020 4  -1689361.441 3
 91  7  9  6 58  0.0000000  0  5 15 11 12 23 21
  23888618.152    -3727163.033 2  -2904279.260 1
  21146273.236    -6917542.569 4  -5390287.697 2
  23665691.280    -4543639.220 2  -3540491.641 1
  22895510.066     9237272.748 3   7197874.452 1
  20392853.122    -2163412.815 4  -1685773.749 2
 91  7  9  6 58 15.0000000  0  5 15 11 12 23 21
  23878741.189    -3779053.652 2  -2944713.374 1
  21147030.218    -6913586.373 4  -5387204.947 2
  23667460.060    -4534361.923 2  -3533262.568 1
  22902160.065     9272186.877 3   7225080.211 1
  20393743.502    -2158737.049 5  -1682130.289 2
 91  7  9  6 58 30.0000000  0  5 15 11 12 23 21
  23868873.222    -3830923.354 2  -2985131.138
  21147815.975    -6909452.690 4  -5383983.891 1
  23669252.215    -4524922.016 2  -3525906.792 1
  22908806.164     9307126.575 3   7252305.945 1
  20394648.881    -2153991.667 5  -1678432.583 3
 91  7  9  6 58 45.0000000  0  5 15 11 12 23 21
  23859008.849    -3882770.076 2  -3025531.271 1
  21148635.306    -6905139.961 4  -5380623.324 2
  23671077.351    -4515317.884 2  -3518423.162 1
  22915459.461     9342093.613 3   7279553.020 1
  20395567.146    -2149174.936 5  -1674679.294 3
 91  7  9  6 59  0.0000000  0  5 15 11 12 23 21
  23849147.478    -3934593.039 2  -3065912.650 1
  21149489.712    -6900647.441 4  -5377122.669 2
  23672939.664    -4505548.797 2  -3510810.680 1
  22922119.947     9377088.665 3   7306821.843 1
  20396494.102    -2144286.261 5  -1670869.942 2
 91  7  9  6 59 15.0000000  0  5 15 11 12 23 21
  23839292.101    -3986393.539 2  -3106276.590 1
  21150379.194    -6895976.733 4  -5373483.166 2
  23674826.556    -4495616.553 3  -3503071.263 1
  22928783.435     9412109.887 3   7334111.106 1
  20397438.150    -2139327.325 5  -1667005.852 3
 91  7  9  6 59 30.0000000  0  5 15 11 12 23 21
  23829432.824    -4038171.496 2  -3146623.077 1
  21151299.256    -6891128.103 4  -5369705.005 2
  23676744.335    -4485521.296 2  -3495204.703 1
  22935454.417     9447157.183 3   7361420.709 1
  20398393.584    -2134298.395 5  -1663087.202 2
 91  7  9  6 59 45.0000000  0  5 15 11 12 23 21
  23819585.841    -4089925.226 2  -3186950.561 1
  21152260.092    -6886100.351 4  -5365787.274 2
  23678701.674    -4475261.981 3  -3487210.484 1
  22942123.297     9482231.840 3   7388751.586 1
  20399364.017    -2129198.042 5  -1659112.910 2
 91  7  9  7  0  0.0000000  0  5 15 11 12 23 21
  23809746.658    -4141654.907 2  -3227259.348 1
  21153249.711    -6880893.633 4  -5361730.079 2
  23680684.507    -4464838.732 3  -3479088.521 1
  22948807.472     9517333.319 3   7416103.391 1
  20400349.431    -2124026.513 5  -1655083.155 2
 91  7  9  7  0 15.0000000  0  5 15 11 12 23 21
  23799904.770    -4193360.472 2  -3267549.404 1
  21154275.600    -6875508.565 4  -5357533.929 2
  23682699.710    -4454252.314 2  -3470839.285 1
  22955494.038     9552461.264 3   7443475.757 1
  20401346.545    -2118784.300 5  -1650998.322 2
 91  7  9  7  0 30.0000000  0  5 15 11 12 23 21
  23790065.883    -4245040.634 2  -3307819.484 1
  21155332.071    -6869943.897 3  -5353197.832 1
  23684743.393    -4443501.390 3  -3462461.857 1
  22962184.513     9587617.072 3   7470869.863 1
  20402355.944    -2113470.285 4  -1646857.543 3
 91  7  9  7  0 45.0000000  0  5 15 11 12 23 21
  23780241.079    -4296695.337 2  -3348069.768 1
  21156426.907    -6864199.927 4  -5348721.984 1
  23686819.454    -4432586.335 2  -3453956.648 1
  22968875.581     9622800.345 3   7498285.403 1
  20403383.029    -2108084.696 4  -1642660.981 2
 91  7  9  7  1  0.0000000  0  5 15 11 12 23 21
  23770412.384    -4348324.487 2  -3388300.317 1
  21157552.629    -6858277.019 4  -5344106.738 2
  23688928.792    -4421507.535 2  -3445323.851 1
  22975578.637     9658010.570 3   7525721.945 1
  20404420.313    -2102627.784 4  -1638408.845 3
 91  7  9  7  1 15.0000000  0  5 15 11 12 23 21
  23760584.587    -4399928.572 2  -3428511.156 1
  21158717.326    -6852175.921 4  -5339352.611 2
  23691072.909    -4410265.697 2  -3436563.900 1
  22982277.801     9693246.980 3   7553178.835 1
  20405471.689    -2097100.179 4  -1634101.620 2
 91  7  9  7  1 30.0000000  0  5 15 11 12 23 21
  23750772.984    -4451506.535 2  -3468701.678 1
  21159908.696    -6845895.809 4  -5334459.021 2
  23693242.207    -4398859.972 2  -3427676.366 1
  22988992.855     9728510.493 3   7580656.917 1
  20406537.749    -2091501.221 4  -1629738.795 3
 91  7  9  7  1 45.0000000  0  5 15 11 12 23 21
  23740962.873    -4503058.580 2  -3508872.107 1
  21161139.347    -6839437.157 4  -5329426.299 1
  23695437.889    -4387290.871 2  -3418661.549 1
  22995713.597     9763800.668 3   7608155.771 1
  20407613.703    -2085831.312 4  -1625320.706 2
 91  7  9  7  2  0.0000000  0  5 15 11 12 23 21
  23731166.556    -4554584.847 2  -3549022.392 1
  21162399.078    -6832800.386 4  -5324254.777 2
  23697672.844    -4375559.012 2  -3409519.654 1
  23002428.946     9799117.102 3   7635675.032 1
  20408708.547    -2080090.833 4  -1620847.599 2
 91  7  9  7  2 15.0000000  0  5 15 11 12 23 21
  23721363.940    -4606084.639 2  -3589151.929 1
  21163695.376    -6825985.226 4  -5318944.276 2
  23699934.776    -4363664.027 2  -3400250.781 1
  23009152.995     9834460.116 3   7663215.035 1
  20409816.880    -2074279.409 5  -1616319.197 2
 91  7  9  7  2 30.0000000  0  5 15 11 12 23 21
  23711567.326    -4657558.257 2  -3629261.280 1
  21165029.751    -6818992.345 4  -5313495.279 1
  23702233.283    -4351606.680 2  -3390855.472 1
  23015884.234     9869829.065 3   7690775.259 1
  20410932.708    -2068397.766 5  -1611736.102 2
 91  7  9  7  2 45.0000000  0  5 15 11 12 23 21
  23701782.099    -4709005.214 2  -3669349.658 1
  21166393.808    -6811821.521 4  -5307907.625 2
  23704561.177    -4339386.661 3  -3381333.354 1
  23022621.475     9905224.240 3   7718355.894 1
  20412065.018    -2062445.463 4  -1607097.942 2
 91  7  9  7  3  0.0000000  0  5 15 11 12 23 21
  23691987.877    -4760425.374 2  -3709417.225 1
  21167785.751    -6804472.941 4  -5302181.469 2
  23706912.149    -4327004.161 2  -3371684.476 1
  23029360.208     9940645.463 3   7745956.837 1
  20413212.030    -2056422.579 5  -1602404.782 2
 91  7  9  7  3 15.0000000  0  5 15 11 12 23 21
  23682204.752    -4811818.859 2  -3749463.975 1
  21169222.951    -6796947.103 4  -5296317.180 2
  23709299.095    -4314459.765 3  -3361909.664 1
  23036108.530     9976092.091 3   7773577.584 1
  20414372.827    -2050329.806 5  -1597657.170 2
 91  7  9  7  3 30.0000000  0  5 15 11 12 23 21
  23672438.110    -4863185.466 2  -3789489.805 1
  21170687.740    -6789244.149 4  -5290314.902 2
  23711715.723    -4301753.595 2  -3352008.690 1
  23042861.659    10011564.215 3   7801218.254 1
  20415545.612    -2044167.127 4  -1592855.087 2
 91  7  9  7  3 45.0000000  0  5 15 11 12 23 21
  23662664.574    -4914524.232 2  -3829493.978 1
  21172191.800    -6781363.361 4  -5284173.999 2
  23714167.723    -4288885.001 2  -3341981.157 1
  23049613.585    10047062.564 3   7828879.277 1
  20416733.091    -2037933.639 4  -1587997.802 2
 91  7  9  7  4  0.0000000  0  5 15 11 12 23 21
  23652905.732    -4965833.666 2  -3869475.245 1
  21173722.533    -6773303.953 4  -5277893.946 2
  23716652.102    -4275853.118 3  -3331826.504 1
  23056376.905    10082587.834 3   7856561.276 1
  20417932.261    -2031628.530 4  -1583084.727 3
 91  7  9  7  4 15.0000000  0  5 15 11 12 23 21
  23643142.990    -5017115.197 2  -3909434.856 1
  21175293.751    -6765067.558 4  -5271475.972 2
  23719157.168    -4262659.562 2  -3321545.776 1
  23063138.123    10118138.517 3   7884263.102 1
  20419144.624    -2025253.295 5  -1578117.029 2
 91  7  9  7  4 30.0000000  0  5 15 11 12 23 21
  23633390.142    -5068367.472 2  -3949371.650 1
  21176891.641    -6756652.922 4  -5264919.083 1
  23721702.710    -4249303.184 3  -3311138.179 1
  23069905.335    10153715.864 3   7911985.678 1
  20420371.671    -2018806.903 4  -1573093.881 2
 91  7  9  7  4 45.0000000  0  5 15 11 12 23 21
  23623649.290    -5119591.100 2  -3989286.073 1
  21178524.912    -6748061.060 4  -5258224.132 1
  23724266.234    -4235785.144 2  -3300604.815 1
  23076681.848    10189318.983 3   7939728.387 1
  20421609.816    -2012290.129 5  -1568015.861 2
 91  7  9  7  5  0.0000000  0  5 15 11 12 23 21
  23613909.033    -5170785.047 2  -4029177.416 1
  21180195.054    -6739291.360 4  -5251390.609 2
  23726877.127    -4222104.671 2  -3289944.931 1
  23083455.359    10224948.612 3   7967491.696 1
  20422865.045    -2005702.336 5  -1562882.506 3
 91  7  9  7  5 15.0000000  0  5 15 11 12 23 21
  23604168.478    -5221949.422 2  -4069045.771 1
  21181895.779    -6730344.418 4  -5244418.961 2
  23729509.605    -4208262.485 2  -3279158.899 1
  23090243.860    10260604.135 3   7995275.220 1
  20424132.271    -1999044.076 4  -1557694.277 3
 91  7  9  7  5 30.0000000  0  5 15 11 12 23 21
  23594434.214    -5273083.820 2  -4108890.708 1
  21183636.674    -6721220.254 4  -5237309.228 2
  23732172.657    -4194258.501 2  -3268246.684 1
  23097036.855    10296285.595 3   8023078.969 1
  20425412.079    -1992315.054 4  -1552450.877 3
 91  7  9  7  5 45.0000000  0  5 15 11 12 23 21
  23584711.346    -5324187.459 2  -4148711.736 1
  21185403.055    -6711918.426 4  -5230061.058 2
  23734865.697    -4180092.555 2  -3257208.362 1
  23103834.352    10331993.470 3   8050903.271 1
  20426707.784    -1985515.135 5  -1547152.259 3
 91  7  9  7  6  0.0000000  0  5 15 11 12 23 21
  23574994.768    -5375260.842 2  -4188509.092 1
  21187205.706    -6702439.653 4  -5222674.985 2
  23737592.904    -4165765.173 2  -3246044.234 1
  23110630.941    10367727.006 3   8078747.601 1
  20428016.079    -1978644.690 5  -1541798.642 2
 91  7  9  7  6 15.0000000  0  5 15 11 12 23 21
  23565284.795    -5426303.456 2  -4228282.631 1
  21189050.325    -6692783.713 4  -5215150.884 2
  23740356.390    -4151275.932 2  -3234753.992 1
  23117435.331    10403486.503 3   8106612.158 1
  20429336.964    -1971703.470 4  -1536389.902 3
 91  7  9  7  6 30.0000000  0  5 15 11 12 23 21
  23555571.820    -5477315.202 2  -4268031.957 1
  21190918.632    -6682950.963 4  -5207488.997 1
  23743144.464    -4136625.514 2  -3223338.019 1
  23124246.020    10439271.785 3   8134496.749 1
  20430669.245    -1964691.773 4  -1530926.249 3
 91  7  9  7  6 45.0000000  0  5 15 11 12 23 21
  23545871.131    -5528295.502 2  -4307756.805 1
  21192820.217    -6672941.294 4  -5199689.250 2
  23745959.812    -4121813.715 2  -3211796.368 1
  23131062.101    10475082.929 3   8162401.591 1
  20432016.506    -1957609.403 4  -1525407.530 2
 91  7  9  7  7  0.0000000  0  5 15 11 12 23 21
  23536171.646    -5579244.592 2  -4347457.401 1
  21194760.472    -6662755.461 4  -5191752.253 1
  23748808.438    -4106841.317 2  -3200129.457 1
  23137879.683    10510919.227 3   8190325.914 1
  20433378.766    -1950456.905 4  -1519834.148 2
 91  7  9  7  7 15.0000000  0  5 15 11 12 23 21
  23526484.454    -5630161.715 2  -4387133.021 1
  21196731.605    -6652393.008 4  -5183677.628 2
  23751693.648    -4091707.848 3  -3188337.115 1
  23144709.253    10546781.405 3   8218270.470 1
  20434755.711    -1943233.916 4  -1514205.843 2
 91  7  9  7  7 30.0000000  0  5 15 11 12 23 21
  23516805.054    -5681046.113 2  -4426783.184 1
  21198740.221    -6641853.551 4  -5175465.093 2
  23754593.534    -4076413.059 2  -3176419.127 1
  23151532.227    10582669.723 3   8246235.413 1
  20436141.956    -1935939.942 4  -1508522.228 3
 91  7  9  7  7 45.0000000  0  5 15 11 12 23 21
  23507126.552    -5731900.086 2  -4466409.592 1
  21200777.010    -6631139.453 4  -5167116.434 1
  23757541.993    -4060959.390 3  -3164377.323 1
  23158365.994    10618581.850 3   8274218.867 1
  20437542.284    -1928577.178 4  -1502785.005 2
 91  7  9  7  8  0.0000000  0  5 15 11 12 23 21
  23497458.250    -5782721.905 2  -4506010.995 1
  21202846.772    -6620249.447 4  -5158630.740 1
  23760510.842    -4045345.350 2  -3152210.509 1
  23165208.164    10654519.201 3   8302222.011 1
  20438956.406    -1921144.247 4  -1496993.117 2
 91  7  9  7  8 15.0000000  0  5 15 11 12 23 21
  23487793.840    -5833510.964 2  -4545586.901 1
  21204956.111    -6609183.538 4  -5150007.945 2
  23763512.061    -4029571.031 2  -3139918.792 1
  23172052.418    10690481.670 3   8330244.696 1
  20440385.517    -1913641.086 4  -1491146.487 2
 91  7  9  7  8 30.0000000  0  5 15 11 12 23 21
  23478135.127    -5884266.855 2  -4585136.910 1
  21207095.438    -6597941.611 4  -5141247.999 2
  23766548.661    -4013636.366 2  -3127502.143 1
  23178894.587    10726469.756 3   8358287.366 1
  20441825.422    -1906067.539 5  -1485245.015 3
 91  7  9  7  8 45.0000000  0  5 15 11 12 23 21
  23468481.213    -5934989.059 2  -4624660.655 1
  21209264.735    -6586523.581 4  -5132350.845 2
  23769602.946    -3997541.373 2  -3114960.572 1
  23185748.440    10762483.435 3   8386349.969 1
  20443280.910    -1898423.339 5  -1479288.493 2
 91  7  9  7  9  0.0000000  0  5 15 11 12 23 21
  23458832.089    -5985677.537 2  -4664158.144 1
  21211474.805    -6574929.846 4  -5123316.771 1
  23772701.904    -3981286.345 2  -3102294.321 1
  23192607.989    10798522.340 3   8414432.242 1
  20444746.597    -1890708.773 5  -1473277.139 2
 91  7  9  7  9 15.0000000  0  5 15 11 12 23 21
  23449192.859    -6036331.645 2  -4703628.831 1
  21213711.557    -6563160.172 4  -5114145.618 2
  23775818.845    -3964871.137 2  -3089503.224 1
  23199472.940    10834586.957 3   8442534.519 1
  20446229.369    -1882923.461 4  -1467210.653 2
 91  7  9  7  9 30.0000000  0  5 15 11 12 23 21
  23439560.234    -6086951.742 2  -4743073.069 1
  21215983.977    -6551215.221 4  -5104837.869 1
  23778981.357    -3948296.419 2  -3076587.894 1
  23206341.189    10870676.493 3   8470656.210 1
  20447725.332    -1875067.897 4  -1461089.440 3
 91  7  9  7  9 45.0000000  0  5 15 11 12 23 21
  23429935.392    -6137536.431 3  -4782489.616 1
  21218292.082    -6539094.081 4  -5095392.837 2
  23782160.952    -3931561.320 2  -3063547.570 1
  23213211.226    10906792.250 3   8498798.391 1
  20449231.495    -1867141.226 4  -1454912.812 2
 91  7  9  7 10  0.0000000  0  5 15 11 12 23 21
  23420312.356    -6188085.750 3  -4821878.692 1
  21220633.160    -6526797.178 4  -5085810.828 2
  23785379.226    -3914666.127 2  -3050382.553 1
  23220088.165    10942933.807 3   8526960.623 1
  20450753.241    -1859143.732 4  -1448680.994 2
 91  7  9  7 10 15.0000000  0  5 15 11 12 23 21
  23410704.004    -6238599.597 3  -4861240.111 1
  21223005.115    -6514324.902 4  -5076092.184 1
  23788628.073    -3897611.256 2  -3037093.032 1
  23226977.101    10979100.701 3   8555142.629 1
  20452287.875    -1851075.763 4  -1442394.265 2
 91  7  9  7 10 30.0000000  0  5 15 11 12 23 21
  23401096.857    -6289078.056 3  -4900573.897 1
  21225410.052    -6501677.583 4  -5066237.135 1
  23791896.114    -3880397.033 2  -3023679.383 1
  23233856.134    11015292.825 3   8583344.286 1
  20453839.897    -1842937.425 4  -1436052.709 2
 91  7  9  7 10 45.0000000  0  5 15 11 12 23 21
  23391496.602    -6339520.565 2  -4939879.760 1
  21227849.165    -6488855.219 4  -5056245.688 2
  23795207.921    -3863023.414 2  -3010141.374 1
  23240750.767    11051510.343 3   8611565.742 1
  20455401.220    -1834728.416 4  -1429656.061 2
 91  7  9  7 11  0.0000000  0  5 15 11 12 23 21
  23381913.736    -6389926.649 3  -4979157.207 1
  21230324.251    -6475857.671 4  -5046117.730 1
  23798538.915    -3845490.494 2  -2996479.347 1
  23247644.493    11087753.335 3   8639806.991 1
  20456976.626    -1826448.625 4  -1423204.279 2
 91  7  9  7 11 15.0000000  0  5 15 11 12 23 21
  23372325.173    -6440296.905 3  -5018406.738 1
  21232833.514    -6462685.883 4  -5035853.990 1
  23801908.282    -3827799.119 2  -2982693.898 1
  23254543.314    11124021.115 3   8668067.595 1
  20458566.428    -1818098.765 4  -1416697.877 3
 91  7  9  7 11 30.0000000  0  5 15 11 12 23 21
  23362745.012    -6490630.462 3  -5057627.683 1
  21235374.257    -6449339.419 4  -5025454.165 2
  23805305.228    -3809948.872 2  -2968784.596 1
  23261455.930    11160314.090 3   8696347.868 1
  20460167.023    -1809678.393 4  -1410136.536 3
 91  7  9  7 11 45.0000000  0  5 15 11 12 23 21
  23353173.533    -6540927.583 2  -5096820.164 1
  21237944.674    -6435819.058 4  -5014918.812 1
  23808732.154    -3791940.546 2  -2954752.167 1
  23268368.546    11196631.485 3   8724647.106 1
  20461782.303    -1801188.361 4  -1403520.915 2
 91  7  9  7 12  0.0000000  0  5 15 11 12 23 21
  23343606.861    -6591187.437 3  -5135983.704 1
  21240546.571    -6422124.509 4  -5004247.727 2
  23812192.061    -3773774.062 2  -2940596.380 1
  23275279.059    11232973.842 3   8752965.851 1
  20463413.470    -1792628.028 4  -1396850.521 2
 91  7  9  7 12 15.0000000  0  5 15 11 12 23 21
  23334050.075    -6641410.353 2  -5175118.408 1
  21243189.547    -6408256.526 4  -4993441.498 2
  23815675.648    -3755449.921 2  -2926317.751 1
  23282200.365    11269340.624 3   8781303.549 1
  20465051.836    -1783997.980 5  -1390125.809 2
 91  7  9  7 12 30.0000000  0  5 15 11 12 23 21
  23324502.581    -6691598.539 3  -5214226.067 1
  21245861.594    -6394217.519 4  -4982502.030 1
  23819189.520    -3736970.646 2  -2911918.288 1
  23289128.276    11305729.609 3   8809658.595 1
  20466712.993    -1775300.570 4  -1383348.605 2
 91  7  9  7 12 45.0000000  0  5 15 11 12 23 21
  23314961.386    -6741747.729 3  -5253303.330 1
  21248569.021    -6380003.895 4  -4971426.484 2
  23822742.062    -3718332.497 2  -2897395.025 1
  23296051.083    11342144.496 2   8838033.873 1
  20468375.335    -1766532.021 4  -1376515.956 2
 91  7  9  7 13  0.0000000  0  5 15 11 12 23 21
  23305424.991    -6791858.317 3  -5292350.517 1
  21251301.926    -6365616.474 4  -4960215.496 1
  23826312.289    -3699536.532 2  -2882748.839 1
  23302990.371    11378584.324 2   8866428.482
  20470060.171    -1757693.002 4  -1369628.397 2
 91  7  9  7 13 15.0000000  0  5 15 11 12 23 21
  23295896.387    -6841930.753 3  -5331368.016 1
  21254076.511    -6351055.922 4  -4948869.635 2
  23829925.688    -3680583.424 2  -2867980.247 1
  23309926.676    11415048.715 2   8894842.387 1
  20471754.299    -1748784.229 4  -1362686.488 2
 91  7  9  7 13 30.0000000  0  5 15 11 12 23 21
  23286374.981    -6891964.370 3  -5370355.100 1
  21256881.066    -6336322.161 4  -4937388.791 1
  23833554.077    -3661472.872 2  -2853088.866 1
  23316873.162    11451537.788 2   8923275.373 1
  20473464.613    -1739805.317 5  -1355689.932 2
 91  7  9  7 13 45.0000000  0  5 15 11 12 23 21
  23276856.567    -6941959.408 2  -5409312.255 1
  21259713.507    -6321415.974 4  -4925773.572 1
  23837228.630    -3642205.710 2  -2838075.451 1
  23323819.353    11488050.822 2   8951727.079 1
  20475184.227    -1730756.721 4  -1348639.083 2
 91  7  9  7 14  0.0000000  0  5 15 11 12 23 21
  23267354.645    -6991916.061 2  -5448239.532 1
  21262583.422    -6306337.963 4  -4914024.466 1
  23840918.776    -3622782.636 2  -2822940.537 1
  23330773.343    11524587.467 2   8980197.211 1
  20476918.220    -1721639.002 4  -1341534.351 2
 91  7  9  7 14 15.0000000  0  5 15 11 12 23 21
  23257850.925    -7041833.428 2  -5487136.092 1
  21265486.013    -6291087.834 4  -4902141.253 2
  23844643.699    -3603203.345 2  -2807683.946 1
  23337732.725    11561147.944 2   9008685.896 1
  20478668.713    -1712451.720 4  -1334375.425 2
 91  7  9  7 14 30.0000000  0  5 15 11 12 23 21
  23248361.898    -7091712.348 2  -5526002.828 1
  21268419.176    -6275666.636 4  -4890124.720 2
  23848401.298    -3583469.033 2  -2792306.535 1
  23344690.310    11597731.518 2   9037192.638 1
  20480430.897    -1703195.910 4  -1327163.096 2
 91  7  9  7 14 45.0000000  0  5 15 11 12 23 21
  23238879.458    -7141553.146 2  -5564839.758 1
  21271388.025    -6260075.253 4  -4877975.626 2
  23852188.274    -3563580.342 2  -2776808.924 1
  23351657.781    11634337.591 2   9065716.803 1
  20482204.764    -1693872.225 4  -1319897.873 2
 91  7  9  7 15  0.0000000  0  5 15 11 12 23 21
  23229400.622    -7191355.115 3  -5603646.432
  21274388.049    -6244313.593 4  -4865693.819 2
  23856006.434    -3543537.258 2  -2761190.939 1
  23358624.964    11670966.444 2   9094258.759 1
  20483990.628    -1684480.295 4  -1312579.475 2
 91  7  9  7 15 15.0000000  0  5 15 11 12 23 21
  23219931.375    -7241117.798 2  -5642422.541 1
  21277419.545    -6228381.453 4  -4853279.145 1
  23859844.078    -3523339.503 2  -2745452.360 1
  23365602.032    11707618.262 2   9122818.594 1
  20485792.380    -1675019.824 4  -1305207.686 2
 91  7  9  7 15 30.0000000  0  5 15 11 12 23 21
  23210469.326    -7290839.598 2  -5681166.730 1
  21280483.131    -6212277.814 4  -4840730.873 2
  23863721.891    -3502986.151 2  -2729592.595 1
  23372585.094    11744294.196 2   9151397.282 1
  20487606.426    -1665489.784 4  -1297781.667 2
 91  7  9  7 15 45.0000000  0  5 15 11 12 23 21
  23201013.873    -7340519.634 2  -5719878.496 1
  21283576.688    -6196002.216 4  -4828048.609 1
  23867620.087    -3482476.825 2  -2713611.287 1
  23379568.462    11780994.702 2   9179995.109 1
  20489430.367    -1655889.474 4  -1290300.903 2
 91  7  9  7 16  0.0000000  0  5 15 11 12 23 21
  23191570.714    -7390159.821 2  -5758559.096 1
  21286711.620    -6179557.122 4  -4815234.236 1
  23871550.670    -3461813.899 2  -2697510.273 1
  23386551.524    11817717.590 2   9208610.331 1
  20491271.085    -1646221.017 4  -1282767.022 3
 91  7  9  7 16 15.0000000  0  5 15 11 12 23 21
  23182127.851    -7439758.223 2  -5797207.113 1
  21289869.926    -6162940.946 4  -4802286.585 1
  23875515.124    -3440995.810 2  -2681288.388 1
  23393553.180    11854464.760 2   9237244.471 1
  20493128.303    -1636482.776 4  -1275178.781 2
 91  7  9  7 16 30.0000000  0  5 15 11 12 23 21
  23172695.179    -7489313.694 2  -5835821.799 1
  21293066.919    -6146152.938 4  -4789205.007 1
  23879509.862    -3420021.869 2  -2664945.086 1
  23400544.941    11891236.947 2   9265898.101 1
  20494992.414    -1626673.941 4  -1267535.514 2
 91  7  9  7 16 45.0000000  0  5 15 11 12 23 21
  23163275.395    -7538826.493 2  -5874403.136 1
  21296293.281    -6129193.989 4  -4775990.269 1
  23883528.281    -3398892.995 2  -2648481.044 1
  23407549.895    11928033.426 2   9294570.711 1
  20496871.811    -1616795.297 4  -1259837.859 2
 91  7  9  7 17  0.0000000  0  5 15 11 12 23 21
  23153860.418    -7588295.618 2  -5912950.572 1
  21299551.726    -6112063.663 4  -4762641.973 1
  23887574.576    -3377608.562 2  -2631895.699 1
  23414554.238    11964854.909 2   9323262.752 1
  20498767.995    -1606846.093 4  -1252085.236 2
 91  7  9  7 17 15.0000000  0  5 15 11 12 23 21
  23144453.529    -7637721.428 2  -5951464.082 1
  21302849.145    -6094762.809 4  -4749160.778 2
  23891660.449    -3356169.476 2  -2615189.887 1
  23421564.592    12001700.683 2   9351973.771 1
  20500671.683    -1596826.846 4  -1244278.015 2
 91  7  9  7 17 30.0000000  0  5 15 11 12 23 21
  23135060.434    -7687104.352 3  -5989944.167 1
  21306168.150    -6077292.382 3  -4735547.465 2
  23895765.805    -3334576.530 2  -2598364.234 1
  23428582.127    12038569.896 2   9380703.031 1
  20502589.454    -1586738.291 4  -1236416.802 3
 91  7  9  7 17 45.0000000  0  5 15 11 12 23 21
  23125670.333    -7736444.095 3  -6028390.796 1
  21309526.122    -6059652.363 4  -4721802.016 2
  23899905.642    -3312829.980 2  -2581418.863 1
  23435602.969    12075462.743 2   9409450.701 1
  20504525.808    -1576580.433 4  -1228501.580 2
 91  7  9  7 18  0.0000000  0  5 15 11 12 23 21
  23116291.626    -7785739.294 3  -6066802.565 1
  21312914.073    -6041842.048 4  -4707923.862 2
  23904071.253    -3290929.179 2  -2564353.294 1
  23442627.703    12112379.994 2   9438217.267 1
  20506472.363    -1566352.409 4  -1220531.692 2
 91  7  9  7 18 15.0000000  0  5 15 11 12 23 21
  23106922.508    -7834989.861 3  -6105179.652 1
  21316338.303    -6023861.670 4  -4693913.176 2
  23908272.245    -3268874.225 2  -2547167.512 1
  23449655.438    12149321.540 2   9467003.017 1
  20508432.109    -1556054.089 4  -1212507.020 2
 91  7  9  7 18 30.0000000  0  5 15 11 12 23 21
  23097562.089    -7884194.752 3  -6143521.075 1
  21319792.216    -6005710.788 4  -4679769.648 1
  23912494.822    -3246664.646 2  -2529861.221 1
  23456691.566    12186287.984 3   9495808.032
  20510404.743    -1545685.029 4  -1204427.235 2
 91  7  9  7 18 45.0000000  0  5 15 11 12 23 21
  23088203.468    -7933356.501 3  -6181828.881 1
  21323278.804    -5987392.494 4  -4665495.639 2
  23916749.177    -3224303.684 2  -2512437.185 1
  23463731.298    12223276.441 3   9524630.185 1
  20512389.967    -1535248.146 4  -1196294.584 3
 91  7  9  7 19  0.0000000  0  5 15 11 12 23 21
  23078850.840    -7982470.668 3  -6220099.691 1
  21326797.169    -5968902.671 4  -4651087.990 2
  23921035.613    -3201787.187 2  -2494891.866 1
  23470777.321    12260291.129 2   9553472.789 1
  20514389.282    -1524738.885 4  -1188105.542 3
 91  7  9  7 19 15.0000000  0  5 15 11 12 23 21
  23069520.401    -8031539.092 3  -6258334.736 1
  21330347.905    -5950243.786 4  -4636548.611 2
  23925346.628    -3179117.655 2  -2477227.307 1
  23477825.743    12297329.934 2   9582334.217 1
  20516401.790    -1514159.643 4  -1179861.966 2
 91  7  9  7 19 30.0000000  0  5 15 11 12 23 21
  23060188.164    -8080582.546 3  -6296550.405 1
  21333923.236    -5931437.006 4  -4621893.991 2
  23929689.124    -3156316.185 2  -2459459.949 1
  23484871.766    12334371.864 2   9611198.079 1
  20518426.887    -1503531.456 4  -1171580.260 3
 91  7  9  7 19 45.0000000  0  5 15 11 12 23 21
  23050861.921    -8129577.970 3  -6334728.613 1
  21337536.033    -5912459.851 3  -4607106.590 1
  23934047.804    -3133360.266 2  -2441572.176 1
  23491918.984    12371439.514 2   9640081.959 1
  20520459.480    -1492831.671 4  -1163242.760 3
 91  7  9  7 20  0.0000000  0  5 15 11 12 23 21
  23041548.871    -8178525.856 3  -6372869.743 1
  21341180.005    -5893313.207 3  -4592187.151 1
  23938455.651    -3110250.738 2  -2423564.723 1
  23498980.293    12408532.234 2   9668985.327 1
  20522511.564    -1482060.928 4  -1154849.988 3
 91  7  9  7 20 15.0000000  0  5 15 11 12 23 21
  23032242.111    -8227426.363 3  -6410974.052 1
  21344856.967    -5873997.911 3  -4577136.263 1
  23942880.886    -3086988.367 2  -2405438.243 1
  23506039.212    12445649.495 2   9697907.919 1
  20524573.535    -1471219.674 4  -1146402.243 3
 91  7  9  7 20 30.0000000  0  5 15 11 12 23 21
  23022944.051    -8276279.391 3  -6449041.347 1
  21348561.796    -5854514.312 3  -4561954.208 1
  23947335.508    -3063573.537 2  -2387192.910 1
  23513117.604    12482791.140 2   9726849.434 1
  20526650.494    -1460308.248 4  -1137899.830 2
 91  7  9  7 20 45.0000000  0  5 15 11 12 23 21
  23013659.479    -8325083.760 3  -6487070.663 1
  21352303.210    -5834861.999 3  -4546640.758 2
  23951814.107    -3040005.872 2  -2368828.523 1
  23520188.215    12519957.558 2   9755810.266 1
  20528738.247    -1449325.971 4  -1129342.211 3
 91  7  9  7 21  0.0000000  0  5 15 11 12 23 21
  23004382.699    -8373839.563 3  -6525062.144 1
  21356075.799    -5815041.292 3  -4531196.061 2
  23956329.874    -3016285.766 2  -2350345.322 1
  23527262.419    12557148.595 2   9784790.303 1
  20530841.897    -1438272.999 4  -1120729.498 3
 91  7  9  7 21 15.0000000  0  5 15 11 12 23 21
  22995113.117    -8422546.147 3  -6563015.322 1
  21359878.367    -5795052.174 3  -4515620.132 2
  23960877.732    -2992413.131 2  -2331743.301 1
  23534339.617    12594364.511 2   9813789.692
  20532959.926    -1427149.117 4  -1112061.523 2
 91  7  9  7 21 30.0000000  0  5 15 11 12 23 21
  22985857.321    -8471187.344 3  -6600917.528 1
  21363718.410    -5774879.091 3  -4499900.862 2
  23965452.865    -2968372.335 2  -2313010.259 1
  23541436.306    12631620.870 3   9842820.619 1
  20535093.547    -1415938.505 4  -1103325.974 3
 91  7  9  7 21 45.0000000  0  5 15 11 12 23 21
  22976607.824    -8519773.957 3  -6638777.178 1
  21367590.526    -5754533.253 4  -4484046.971 1
  23970056.477    -2944174.630 2  -2294154.903 1
  23548533.589    12668906.858 3   9871874.694 1
  20537243.361    -1404652.087 4  -1094531.361 3
 91  7  9  7 22  0.0000000  0  5 15 11 12 23 21
  22967370.918    -8568310.136 3  -6676597.549 1
  21371494.122    -5734019.250 4  -4468062.013 2
  23974689.169    -2919824.652 2  -2275180.902 1
  23555632.373    12706218.252 3   9900948.491 1
  20539403.070    -1393294.323 4  -1085681.145 3
 91  7  9  7 22 15.0000000  0  5 15 11 12 23 21
  22958150.206    -8616797.429 3  -6714379.846 1
  21375430.996    -5713339.041 4  -4451947.587 1
  23979352.443    -2895324.381 2  -2256089.788 1
  23562733.259    12743553.007 3   9930040.527 1
  20541574.165    -1381867.161 4  -1076776.859 3
 91  7  9  7 22 30.0000000  0  5 15 11 12 23 21
  22948931.282    -8665231.994 3  -6752120.981 1
  21379397.849    -5692489.687 4  -4435701.347 1
  23984044.188    -2870670.801 2  -2236879.193 1
  23569848.236    12780914.465 3   9959153.425 1
  20543765.345    -1370367.155 4  -1067815.808 2
 91  7  9  7 22 45.0000000  0  5 15 11 12 23 21
  22939728.857    -8713615.031 3  -6789822.025 1
  21383393.487    -5671472.991 4  -4419324.694 1
  23988763.826    -2845865.797 2  -2217550.667 1
  23576962.611    12818301.003 3   9988285.712 1
  20545966.420    -1358795.880 4  -1058799.231 3
 91  7  9  7 23  0.0000000  0  5 15 11 12 23 21
  22930524.932    -8761946.932 3  -6827483.231 1
  21387424.190    -5650289.650 4  -4402818.200 2
  23993510.137    -2820909.765 2  -2198104.443 1
  23584077.283    12855712.060 2  10017437.232 1
  20548180.686    -1347153.847 4  -1049727.503 3
 91  7  9  7 23 15.0000000  0  5 15 11 12 23 21
  22921338.387    -8810226.421 3  -6865103.597 1
  21391486.383    -5628939.090 4  -4386181.421 2
  23998293.023    -2795802.211 2  -2178540.097 1
  23591203.952    12893148.425 2  10046608.417 1
  20550408.748    -1335440.265 4  -1040600.027 2
 91  7  9  7 23 30.0000000  0  5 15 11 12 23 21
  22912159.939    -8858452.938 3  -6902682.663 1
  21395585.448    -5607421.223 3  -4369414.251 1
  24003100.803    -2770543.225 2  -2158857.789 1
  23598331.214    12930610.435 2  10075799.666 1
  20552652.697    -1323654.834 4  -1031416.564 3
 91  7  9  7 23 45.0000000  0  5 15 11 12 23 21
  22902991.987    -8906625.242 3  -6940219.494 1
  21399708.786    -5585735.507 3  -4352516.300 1
  24007932.558    -2745132.235 2  -2139057.087 1
  23605464.174    12968098.785 2  10105011.319 1
  20554913.425    -1311796.764 4  -1022176.496 3
 91  7  9  7 24  0.0000000  0  5 15 11 12 23 21
  22893843.518    -8954743.716 3  -6977714.387 1
  21403872.007    -5563882.574 3  -4335488.035 2
  24012790.690    -2719569.848 2  -2119138.337 1
  23612603.739    13005613.117 2  10134243.343 1
  20557178.359    -1299866.525 4  -1012880.197 3
 91  7  9  7 24 15.0000000  0  5 15 11 12 23 21
  22884693.252    -9002807.946 3  -7015167.038 1
  21408056.508    -5541862.917 3  -4318329.869 2
  24017686.899    -2693856.490 2  -2099101.980 1
  23619745.092    13043153.317 2  10163495.461 1
  20559464.582    -1287864.239 4  -1003527.756 3
 91  7  9  7 24 30.0000000  0  5 15 11 12 23 21
  22875557.383    -9050818.150 3  -7052577.524 1
  21412282.689    -5519677.129 3  -4301042.234 1
  24022613.392    -2667992.570 2  -2078948.227 1
  23626899.341    13080718.939 2  10192767.327 1
  20561760.394    -1275790.188 4   -994119.404 3
 91  7  9  7 24 45.0000000  0  5 15 11 12 23 21
  22866434.095    -9098774.281 3  -7089945.916 1
  21416534.644    -5497325.480 3  -4283625.383 1
  24027562.666    -2641978.676 2  -2058677.657 1
  23634049.385    13118309.899 2  10222059.007 1
  20564075.383    -1263644.616 4   -984655.317 3
 91  7  9  7 25  0.0000000  0  5 15 11 12 23 21
  22857317.106    -9146674.715 3  -7127270.853 1
  21420816.875    -5474807.188 3  -4266078.681 1
  24032540.419    -2615813.917 3  -2038289.535 1
  23641207.830    13155927.038 2  10251371.086 1
  20566402.378    -1251426.500 4   -975134.702 3
 91  7  9  7 25 15.0000000  0  5 15 11 12 23 21
  22848215.710    -9194519.630 3  -7164552.591 1
  21425137.784    -5452122.913 3  -4248402.620 1
  24037546.957    -2589499.086 3  -2017784.474 1
  23648371.372    13193570.094 2  10280703.309 1
  20568736.563    -1239136.303 4   -965557.919 3
 91  7  9  7 25 30.0000000  0  5 15 11 12 23 21
  22839112.812    -9242309.759 3  -7201791.638 1
  21429486.579    -5429274.049 3  -4230598.319 2
  24042584.669    -2563035.288 2  -1997163.369 1
  23655543.010    13231237.856 2  10310054.831 1
  20571089.629    -1226774.939 4   -955925.678 3
 91  7  9  7 25 45.0000000  0  5 15 11 12 23 21
  22830034.494    -9290043.718 3  -7238986.889 1
  21433865.345    -5406259.618 3  -4212665.011 1
  24047650.859    -2536421.688 2  -1976425.514 1
  23662715.241    13268931.521 2  10339426.581 1
  20573456.489    -1214341.351 4   -946237.159 3
 91  7  9  7 26  0.0000000  0  5 15 11 12 23 21
  22820960.380    -9337722.282 3  -7276139.010 1
  21438277.693    -5383080.989 3  -4194603.751 1
  24052743.130    -2509659.670 3  -1955571.986 1
  23669886.277    13306649.755 2  10368817.364 1
  20575835.347    -1201836.706 4   -936493.287 3
 91  7  9  7 26 15.0000000  0  5 15 11 12 23 21
  22811891.659    -9385344.695 3  -7313247.350 1
  21442717.919    -5359738.280 3  -4176414.639 1
  24057864.184    -2482749.279 3  -1934602.790 1
  23677075.898    13344392.910 2  10398227.538 1
  20578230.084    -1189260.826 4   -926693.894 2
 91  7  9  7 26 30.0000000  0  5 15 11 12 23 21
  22802840.921    -9432912.136 3  -7350312.889 1
  21447190.218    -5336232.997 3  -4158098.847 1
  24063011.920    -2455692.012 3  -1913519.257 1
  23684255.633    13382159.744 2  10427656.304 1
  20580636.521    -1176614.753 4   -916839.806 3
 91  7  9  7 26 45.0000000  0  5 15 11 12 23 21
  22793800.076    -9480422.289 3  -7387333.770 1
  21451693.403    -5312563.322 3  -4139654.951 1
  24068187.244    -2428485.933 3  -1892319.687 1
  23691450.951    13419952.263 2  10457105.010 1
  20583055.845    -1163896.676 4   -906929.600 2
 91  7  9  7 27  0.0000000  0  5 15 11 12 23 21
  22784775.426    -9527875.653 3  -7424310.409 2
  21456228.959    -5288730.629 3  -4121084.042 1
  24073396.134    -2401132.482 3  -1871005.331 1
  23698646.269    13457769.303 2  10486572.852 1
  20585489.261    -1151107.588 4   -896964.065 3
 91  7  9  7 27 15.0000000  0  5 15 11 12 23 21
  22775752.572    -9575272.152 3  -7461242.770 1
  21460793.605    -5264734.928 3  -4102386.093 2
  24078629.009    -2373631.745 2  -1849576.184 1
  23705845.487    13495611.197 2  10516060.027 1
  20587936.767    -1138247.147 5   -886942.947 3
 91  7  9  7 27 30.0000000  0  5 15 11 12 23 21
  22766747.108    -9622610.338 3  -7498129.618 1
  21465390.018    -5240575.433 3  -4083560.502 1
  24083894.569    -2345982.779 3  -1828031.536 2
  23713050.700    13533478.822 2  10545567.364 1
  20590399.263    -1125314.362 4   -876865.439 2
 91  7  9  7 27 45.0000000  0  5 15 11 12 23 21
  22757752.437    -9669889.400 3  -7534970.438 1
  21470022.414    -5216252.020 3  -4064607.195 1
  24089180.510    -2318185.423 2  -1806371.187 1
  23720263.101    13571372.444 2  10575094.807 1
  20592870.450    -1112308.854 4   -866731.274 3
 91  7  9  7 28  0.0000000  0  5 15 11 12 23 21
  22748770.051    -9717109.692 3  -7571765.437 1
  21474679.685    -5191765.933 3  -4045527.121 2
  24094497.330    -2290241.066 2  -1784596.416 1
  23727480.904    13609291.399 2  10604642.031 1
  20595362.323    -1099231.606 4   -856541.195 3
 91  7  9  7 28 15.0000000  0  5 15 11 12 23 21
  22739788.276    -9764289.165 3  -7608528.629 1
  21479364.545    -5167135.789 3  -4026334.829 1
  24099837.830    -2262168.286 2  -1762721.512 1
  23734696.011    13647217.116 2  10634194.570 1
  20597858.403    -1086101.072 4   -846309.604 3
 91  7  9  7 28 30.0000000  0  5 15 11 12 23 21
  22730819.684    -9811414.828 3  -7645249.898 1
  21484084.175    -5142348.789 3  -4007020.287 1
  24105205.316    -2233954.257 2  -1740736.662 1
  23741913.517    13685162.583 2  10663762.480 1
  20600370.361    -1072904.320 4   -836026.416 2
 91  7  9  7 28 45.0000000  0  5 15 11 12 23 21
  22721860.986    -9858482.492 3  -7681925.968 1
  21488833.487    -5117401.452 3  -3987580.828 1
  24110602.476    -2205595.391 2  -1718638.799 1
  23749143.910    13723131.659 2  10693348.766 1
  20602896.708    -1059637.419 4   -825688.578 3
 91  7  9  7 29  0.0000000  0  5 15 11 12 23 21
  22712919.076    -9905490.863 3  -7718555.861 1
  21493607.989    -5092293.268 3  -3968016.001 1
  24116028.717    -2177090.966 2  -1696427.569 1
  23756381.798    13761125.052 2  10722954.073 1
  20605435.357    -1046299.570 5   -815295.449 2
 91  7  9  7 29 15.0000000  0  5 15 11 12 23 21
  22703983.160    -9952440.103 3  -7755139.654 2
  21498414.555    -5067024.788 3  -3948326.280 1
  24121475.646    -2148441.927 2  -1674103.619 1
  23763606.197    13799142.395 2  10752577.896 1
  20607983.891    -1032890.977 4   -804847.194 3
 91  7  9  7 29 30.0000000  0  5 15 11 12 23 21
  22695055.943    -9999329.544 3  -7791676.848 1
  21503256.205    -5041595.746 3  -3928511.429 1
  24126960.057    -2119647.758 2  -1651666.601 1
  23770849.180    13837184.317 2  10782221.005 1
  20610548.018    -1019411.214 4   -794343.500 3
 91  7  9  7 29 45.0000000  0  5 15 11 12 23 21
  22686144.308   -10046159.086 3  -7828167.407 1
  21508124.834    -5016006.805 3  -3908572.009 1
  24132467.241    -2090709.044 2  -1629116.770 1
  23778090.671    13875250.319 2  10811882.822 1
  20613128.329    -1005860.601 4   -783784.567 2
 91  7  9  7 30  0.0000000  0  5 15 11 12 23 21
  22677242.272   -10092928.260 3  -7864610.902 1
  21513028.240    -4990258.215 3  -3888508.215 1
  24138004.405    -2061626.192 2  -1606454.926 1
  23785341.150    13913340.592 2  10841563.543 1
  20615720.637     -992239.208 4   -773170.495 3
 91  7  9  7 30 15.0000000  0  5 15 11 12 23 21
  22668361.821   -10139638.468 3  -7901008.440 1
  21517955.929    -4964351.981 3  -3868321.528 1
  24143561.959    -2032401.095 2  -1583682.181 1
  23792588.330    13951453.268 2  10871261.743 1
  20618325.231     -978548.658 4   -762502.536 2
 91  7  9  7 30 30.0000000  0  5 15 11 12 23 21
  22659479.870   -10186288.699 3  -7937359.245 1
  21522912.401    -4938287.618 3  -3848011.653 1
  24149148.594    -2003033.416 2  -1560798.341 1
  23799845.413    13989589.047 2  10900977.945 1
  20620944.220     -964788.322 4   -751780.192 2
 91  7  9  7 30 45.0000000  0  5 15 11 12 23 21
  22650614.103   -10232877.717 3  -7973662.332 1
  21527906.043    -4912064.745 3  -3827578.247 2
  24154760.409    -1973522.648 2  -1537802.991 1
  23807111.483    14027748.734 2  10930712.752 1
  20623575.792     -950957.461 4   -741002.901 2
 91  7  9  7 31  0.0000000  0  5 15 11 12 23 21
  22641768.134   -10279407.355 3  -8009919.214 1
  21532925.467    -4885685.451 3  -3807022.945 1
  24160411.497    -1943870.898 2  -1514697.742 1
  23814381.750    14065930.347 2  10960464.708 1
  20626222.964     -937057.809 4   -730171.998 2
 91  7  9  7 31 15.0000000  0  5 15 11 12 23 21
  22632918.858   -10325872.065 3  -8046125.467 1
  21537977.567    -4859144.959 3  -3786342.082 1
  24166078.176    -1914073.187 2  -1491478.752 1
  23821648.718    14104138.944 2  10990237.673 1
  20628877.927     -923084.248 4   -719283.504 2
 91  7  9  7 31 30.0000000  0  5 15 11 12 23 21
  22624095.068   -10372256.631 3  -8082269.269 1
  21543061.147    -4832428.764 3  -3765524.252 1
  24171782.320    -1884115.182 2  -1468134.946 1
  23828927.073    14142389.515 2  11020043.287 1
  20631557.172     -909022.054 4   -708325.967 2
 91  7  9  7 31 45.0000000  0  5 15 11 12 23 21
  22615279.367   -10418580.795 3  -8118365.962 1
  21548170.509    -4805557.086 3  -3744585.290 1
  24177509.857    -1854016.706 2  -1444681.553 1
  23836210.838    14180662.014 2  11049865.980 1
  20634245.710     -894891.135 5   -697314.842 2
 91  7  9  7 32  0.0000000  0  5 15 11 12 23 21
  22606476.264   -10464844.397 3  -8154415.560 1
  21553316.753    -4778530.180 3  -3723525.383 1
  24183264.677    -1823778.368 2  -1421119.228 1
  23843499.986    14218956.354 2  11079705.767 1
  20636947.737     -880691.590 5   -686250.255 3
 91  7  9  7 32 15.0000000  0  5 15 11 12 23 21
  22597689.347   -10511045.995 3  -8190416.753 1
  21558487.872    -4751347.325 3  -3702343.940 2
  24189042.872    -1793399.479 2  -1397447.451 1
  23850786.446    14257273.550 2  11109563.355 1
  20639663.854     -866422.395 4   -675131.392 2
 91  7  9  7 32 30.0000000  0  5 15 11 12 23 21
  22588898.834   -10557184.516 3  -8226368.813 1
  21563690.471    -4724008.364 3  -3681040.858 1
  24194853.750    -1762879.597 2  -1373665.498 1
  23858085.192    14295614.180 2  11139439.127 1
  20642391.672     -852082.880 4   -663957.742 2
 91  7  9  7 32 45.0000000  0  5 15 11 12 23 21
  22580139.497   -10603259.591 3  -8262271.483 1
  21568926.941    -4696513.485 3  -3659616.304 1
  24200686.512    -1732219.016 2  -1349774.217 1
  23865380.944    14333978.243 2  11169333.244 1
  20645134.175     -837673.096 4   -652729.346 2
 91  7  9  7 33  0.0000000  0  5 15 11 12 23 21
  22571380.456   -10649272.348 3  -8298125.552 1
  21574184.404    -4668864.276 3  -3638071.477 1
  24206549.558    -1701419.285 2  -1325774.489 1
  23872689.584    14372364.477 2  11199244.627 1
  20647888.665     -823194.249 4   -641447.128 2
 91  7  9  7 33 15.0000000  0  5 15 11 12 23 21
  22562635.210   -10695221.209 3  -8333929.871 1
  21579477.238    -4641059.825 3  -3616405.684 1
  24212433.283    -1670479.392 2  -1301665.504 1
  23879997.919    14410773.959 2  11229173.993 1
  20650655.746     -808645.165 4   -630110.180 3
 91  7  9  7 33 30.0000000  0  5 15 11 12 23 21
  22553901.358   -10741105.673 3  -8369683.931 1
  21584796.457    -4613100.482 3  -3594619.165 1
  24218346.987    -1639399.540 2  -1277447.364 1
  23887311.654    14449206.701 2  11259121.706 1
  20653439.623     -794025.845 4   -618718.491 2
 91  7  9  7 33 45.0000000  0  5 15 11 12 23 21
  22545182.496   -10786925.836 3  -8405387.946 1
  21590145.350    -4584986.950 3  -3572712.540 1
  24224286.178    -1608180.792 2  -1253121.098 1
  23894624.194    14487662.302 2  11289087.162 1
  20656236.082     -779336.720 4   -607272.428 2
 91  7  9  7 34  0.0000000  0  5 15 11 12 23 21
  22536478.022   -10832680.325 3  -8441040.770 1
  21595526.029    -4556718.257 3  -3550684.991 2
  24230259.841    -1576821.996 2  -1228685.746 1
  23901954.123    14526142.038 2  11319071.313 1
  20659043.342     -764576.458 5   -595770.916 2
 91  7  9  7 34 15.0000000  0  5 15 11 12 23 21
  22527784.036   -10878369.914 3  -8476643.043 1
  21600934.881    -4528295.977 3  -3528537.758 1
  24236251.495    -1545324.674 2  -1204142.447 1
  23909278.948    14564644.668 2  11349073.316 1
  20661866.185     -749746.422 5   -584215.057 2
 91  7  9  7 34 30.0000000  0  5 15 11 12 23 21
  22519100.851   -10923995.049 3  -8512195.099 1
  21606375.519    -4499721.143 3  -3506271.686 1
  24242272.824    -1513689.629 2  -1179491.739 1
  23916610.971    14603169.390 2  11379092.597 1
  20664700.423     -734847.315 5   -572605.348 2
 91  7  9  7 34 45.0000000  0  5 15 11 12 23 21
  22510430.554   -10969552.917 3  -8547694.682 1
  21611839.836    -4470991.522 3  -3483885.000 1
  24248314.237    -1481914.627 2  -1154731.955 1
  23923947.793    14641718.901 2  11409131.202 1
  20667550.855     -719876.523 5   -560939.794 2
 91  7  9  7 35  0.0000000  0  5 15 11 12 23 21
  22501774.644   -11015044.592 3  -8583142.727 1
  21617335.634    -4442108.996 3  -3461379.134 1
  24254391.930    -1450001.764 2  -1129864.805 1
  23931290.312    14680291.600 2  11439187.911 1
  20670412.072     -704835.630 5   -549219.615 2
 91  7  9  7 35 15.0000000  0  5 15 11 12 23 21
  22493129.832   -11060469.095 3  -8618538.401 2
  21622861.106    -4413073.127 3  -3438753.788 1
  24260484.613    -1417950.440 2  -1104889.729 1
  23938630.136    14718887.839 2  11469262.937 1
  20673287.684     -689724.082 5   -537444.378 2
 91  7  9  7 35 30.0000000  0  5 15 11 12 23 21
  22484499.408   -11105827.931 3  -8653882.960 1
  21628416.261    -4383885.752 3  -3416010.388 1
  24266617.474    -1385762.775 2  -1079808.538 1
  23945978.344    14757506.226 2  11499355.166 1
  20676175.878     -674543.349 4   -525615.238 2
 91  7  9  7 35 45.0000000  0  5 15 11 12 23 21
  22475878.276   -11151118.852 3  -8689174.576 1
  21633996.299    -4354545.574 3  -3393147.915 1
  24272763.214    -1353437.304 2  -1054619.878 1
  23953332.851    14796148.428 2  11529465.981 1
  20679079.673     -659291.562 4   -513730.731 2
 91  7  9  7 36  0.0000000  0  5 15 11 12 23 21
  22467270.633   -11196363.551 3  -8724430.148 1
  21639606.614    -4325075.186 3  -3370184.011 1
  24278939.544    -1320996.548 2  -1029341.335 1
  23960684.663    14834792.109 2  11559577.937 1
  20681989.157     -643991.161 4   -501808.331 2
 91  7  9  7 36 15.0000000  0  5 15 11 12 23 21
  22458675.284   -11241539.211 3  -8759631.999 1
  21645241.211    -4295452.248 3  -3347101.231 1
  24285141.945    -1288417.970 2  -1003955.540 1
  23968047.564    14873459.895 2  11589708.651 1
  20684912.731     -628619.405 4   -489830.344 2
 91  7  9  7 36 30.0000000  0  5 15 11 12 23 21
  22450085.633   -11286647.115 3  -8794780.950 2
  21650910.883    -4265678.671 3  -3323901.036 1
  24291362.939    -1255703.441 2   -978463.603 1
  23975404.471    14912150.373 2  11619857.089 1
  20687852.194     -613177.881 4   -477797.972 2
 91  7  9  7 36 45.0000000  0  5 15 11 12 23 21
  22441524.155   -11331686.846 3  -8829876.818 1
  21656603.048    -4235754.562 3  -3300583.575 1
  24297610.911    -1222853.268 2   -952866.049 1
  23982775.469    14950863.703 2  11650023.322 1
  20690806.054     -597666.418 4   -465711.141 2
 91  7  9  7 37  0.0000000  0  5 15 11 12 23 21
  22432964.779   -11376657.513 3  -8864918.912 2
  21662324.581    -4205679.611 3  -3277148.534 1
  24303887.972    -1189867.201 2   -927162.674 1
  23990141.974    14989600.391 2  11680207.794 1
  20693770.697     -582084.556 5   -453569.388 2
 91  7  9  7 37 15.0000000  0  5 15 11 12 23 21
  22424417.095   -11421558.653 3  -8899906.793 2
  21668078.197    -4175454.265 3  -3253596.334 1
  24310195.301    -1156745.210 2   -901353.288 1
  23997523.757    15028360.387 2  11710410.389 1
  20696750.340     -566432.330 4   -441372.838 2
 91  7  9  7 37 30.0000000  0  5 15 11 12 23 21
  22415889.506   -11466390.673 3  -8934840.833 1
  21673860.301    -4145079.629 3  -3229927.790 1
  24316519.722    -1123488.694 2   -875439.215 1
  24004897.460    15067142.979 2  11740630.498 1
  20699740.164     -550710.325 4   -429121.914 2
 91  7  9  7 37 45.0000000  0  5 15 11 12 23 21
  22407368.503   -11511153.916 3  -8969721.248 1
  21679668.780    -4114556.644 3  -3206143.655 1
  24322872.326    -1090098.657 2   -849421.048 1
  24012281.641    15105947.476 2  11770867.873 1
  20702743.791     -534919.233 4   -416817.141 2
 91  7  9  7 38  0.0000000  0  5 15 11 12 23 21
  22398862.787   -11555847.316 3  -9004547.274 1
  21685503.941    -4083884.993 3  -3182243.673 1
  24329257.605    -1056574.389 2   -823298.262 1
  24019674.522    15144774.507 2  11801122.752 1
  20705761.798     -519058.434 4   -404458.086 2
 91  7  9  7 38 15.0000000  0  5 15 11 12 23 21
  22390374.766   -11600457.313 3  -9039308.291 1
  21691369.675    -4053051.673 3  -3158217.741 1
  24335665.072    -1022903.045 2   -797060.872 1
  24027067.708    15183637.319 2  11831405.481 1
  20708798.999     -503114.514 4   -392034.233 2
 91  7  9  7 38 30.0000000  0  5 15 11 12 23 21
  22381901.429   -11644985.970 3  -9074005.930 1
  21697271.094    -4022059.608 3  -3134068.070 1
  24342096.219     -989087.546 2   -770711.160 1
  24034475.579    15222533.221 2  11861713.931 1
  20711847.884     -487090.248 4   -379547.791 2
 91  7  9  7 38 45.0000000  0  5 15 11 12 23 21
  22373441.886   -11689445.047 3  -9108649.373 1
  21703193.794    -3990920.892 3  -3109804.160 1
  24348563.339     -955140.044 2   -744258.659 1
  24041876.556    15261450.544 2  11892039.134 1
  20714907.570     -470997.336 4   -367007.862 2
 91  7  9  7 39  0.0000000  0  5 15 11 12 23 21
  22364991.941   -11733832.678 3  -9143237.123 1
  21709148.873    -3959634.461 3  -3085425.150 1
  24355046.051     -921059.335 2   -717702.345 1
  24049280.832    15300390.947 2  11922382.224 1
  20717984.035     -454834.216 4   -354413.210 2
 91  7  9  7 39 15.0000000  0  5 15 11 12 23 21
  22356561.775   -11778148.406 3  -9177768.846 2
  21715129.726    -3928200.553 3  -3060931.180 1
  24361550.951     -886845.330 2   -691042.127 1
  24056705.193    15339354.280 2  11952743.347 1
  20721075.795     -438600.795 4   -341763.784 2
 91  7  9  7 39 30.0000000  0  5 15 11 12 23 21
  22348141.504   -11822391.706 3  -9212244.124 2
  21721136.370    -3896619.320 3  -3036322.445 1
  24368095.717     -852498.298 2   -664277.966 1
  24064116.955    15378340.771 2  11983122.355 1
  20724176.253     -422296.832 5   -329059.392 2
 91  7  9  7 39 45.0000000  0  5 15 11 12 23 21
  22339732.323   -11866562.530 3  -9246662.970 1
  21727176.291    -3864891.354 3  -3011599.346 1
  24374649.783     -818019.140 2   -637410.982 1
  24071543.418    15417350.019 2  12013519.173 1
  20727293.491     -405922.704 4   -316300.322 2
 91  7  9  7 40  0.0000000  0  5 15 11 12 23 21
  22331342.031   -11910658.841 3  -9281023.688 1
  21733241.987    -3833015.300 3  -2986760.877 1
  24381236.525     -783406.188 2   -610439.695 1
  24078969.577    15456383.822 2  12043935.157 1
  20730423.623     -389476.745 4   -303485.272 2
 91  7  9  7 40 15.0000000  0  5 15 11 12 23 21
  22322968.832   -11954679.782 3  -9315325.707 1
  21739334.975    -3800991.177 3  -2961807.038 1
  24387846.344     -748659.532 2   -583364.419 1
  24086400.830    15495442.444 2  12074370.394 1
  20733564.855     -372958.645 4   -290614.022 2
 91  7  9  7 40 30.0000000  0  5 15 11 12 23 21
  22314607.316   -11998627.008 3  -9349570.302 2
  21745457.933    -3768821.258 3  -2936739.555 2
  24394484.049     -713781.283 2   -556186.614 1
  24093844.378    15534523.882 2  12104823.544 1
  20736720.168     -356370.261 4   -277687.990 2
 91  7  9  7 40 45.0000000  0  5 15 11 12 23 21
  22306259.001   -12042499.555 3  -9383756.651 1
  21751608.175    -3736504.976 3  -2911558.043 1
  24401148.733     -678770.933 2   -528905.840 1
  24101280.727    15573629.305 2  12135295.400 1
  20739891.370     -339710.697 4   -264706.491 3
 91  7  9  7 41  0.0000000  0  5 15 11 12 23 21
  22297922.072   -12086297.586 3  -9417885.007 2
  21757786.294    -3704043.289 3  -2886263.233 1
  24407840.708     -643629.373 2   -501522.853 1
  24108722.477    15612757.798 2  12165785.091 1
  20743075.171     -322980.451 4   -251669.953 2
 91  7  9  7 41 15.0000000  0  5 15 11 12 23 21
  22289597.734   -12130021.885 3  -9451955.860 2
  21763988.102    -3671437.684 3  -2860856.291 1
  24414554.854     -608357.932 2   -474038.653 1
  24116178.318    15651908.312 2  12196291.939 1
  20746273.953     -306180.801 5   -238579.316 2
 91  7  9  7 41 30.0000000  0  5 15 11 12 23 21
  22281294.685   -12173670.815 3  -9485967.998 2
  21770222.584    -3638687.230 3  -2835336.478 1
  24421289.695     -572955.744 2   -446452.574 1
  24123631.158    15691082.149 2  12226816.966 1
  20749483.231     -289310.308 5   -225433.480 2
 91  7  9  7 41 45.0000000  0  5 15 11 12 23 21
  22273007.219   -12217243.419 3  -9519920.664 2
  21776480.756    -3605791.799 3  -2809703.675 1
  24428048.217     -537422.574 2   -418764.439 1
  24131092.696    15730279.776 2  12257360.569 1
  20752707.202     -272368.618 4   -212232.147 2
 91  7  9  7 42  0.0000000  0  5 15 11 12 23 21
  22264729.647   -12260739.258 3  -9553813.490 2
  21782765.906    -3572751.646 3  -2783958.126 1
  24434829.520     -501758.687 2   -390974.424 1
  24138552.429    15769501.251 2  12287922.787 1
  20755945.858     -255355.568 4   -198975.215 2
 91  7  9  7 42 15.0000000  0  5 15 11 12 23 21
  22256465.573   -12304158.769 3  -9587646.854 2
  21789087.029    -3539567.877 3  -2758100.669 1
  24441638.403     -465965.152 2   -363083.372 1
  24146023.260    15808745.807 2  12318502.856 1
  20759196.511     -238272.011 4   -185663.360 2
 91  7  9  7 42 30.0000000  0  5 15 11 12 23 21
  22248216.776   -12347501.713 3  -9621420.562 2
  21795425.541    -3506240.765 3  -2732131.513 1
  24448483.268     -430042.369 2   -335091.584 1
  24153492.285    15848013.541 2  12349101.172 1
  20762458.847     -221117.777 4   -172296.399 2
 91  7  9  7 42 45.0000000  0  5 15 11 12 23 21
  22239982.682   -12390767.356 3  -9655134.034 2
  21801794.932    -3472770.244 3  -2706050.619 1
  24455341.317     -393990.147 2   -306998.889 1
  24160964.311    15887304.789 2  12379717.702 1
  20765736.181     -203892.397 4   -158874.001 2
 91  7  9  7 43  0.0000000  0  5 15 11 12 23 21
  22231765.365   -12433956.667 3  -9688787.985 2
  21808189.206    -3439158.122 3  -2679859.356 1
  24462227.548     -357810.374 2   -278806.897 1
  24168455.227    15926618.239 2  12410351.614 1
  20769028.801     -186597.534 4   -145397.479 3
 91  7  9  7 43 15.0000000  0  5 15 11 12 23 21
  22223560.648   -12477068.349 3  -9722381.493 2
  21814613.155    -3405403.718 3  -2653557.232 2
  24469133.568     -321502.199 2   -250514.848 1
  24175937.147    15965954.703 2  12441003.354 1
  20772334.911     -169231.967 4   -131865.856 2
 91  7  9  7 43 30.0000000  0  5 15 11 12 23 21
  22215373.320   -12520102.549 3  -9755914.607 2
  21821066.490    -3371507.980 3  -2627145.009 1
  24476071.670     -285066.644 2   -222123.502 1
  24183429.259    16005313.717 2  12471672.751 1
  20775650.312     -151796.303 4   -118279.621 3
 91  7  9  7 43 45.0000000  0  5 15 11 12 23 21
  22207199.176   -12563058.840 3  -9789387.012 1
  21827542.606    -3337471.177 3  -2600622.801 1
  24483025.058     -248503.493 2   -193632.710 1
  24190922.269    16044695.450 2  12502359.795 1
  20778981.315     -134290.553 4   -104638.780 2
